GFSMA_sfc_dewp_000.txt.gz
Dewpoint
61 61 61 61 60 60 56 50 48 48 47 48 47 47 48 51 52 54 56 59 60 61 62 61 62 63 64 65 64 65 65 65 65 66 66 66 66 66 66 66 66 66 66
61 59 46 47 49 48 46 44 43 43 42 43 42 43 43 44 45 46 48 51 58 59 56 55 56 59 62 62 61 64 64 64 64 64 64 64 64 65 65 66 66 66 66
47 44 43 43 45 44 42 40 38 37 39 39 38 39 38 37 41 40 44 44 47 53 54 52 56 51 52 53 54 55 60 60 60 60 60 61 62 63 64 64 65 65 66
43 41 40 40 42 40 37 36 36 34 36 36 35 34 35 36 37 39 40 36 41 42 45 51 46 45 46 49 52 51 51 52 56 57 58 60 60 61 61 62 63 63 64
39 38 37 37 38 36 34 34 31 33 34 33 32 34 30 34 38 31 30 33 39 38 37 45 47 45 45 46 46 48 48 48 49 50 51 51 54 55 57 58 60 61 60
34 35 33 34 35 33 32 31 29 31 33 33 33 30 29 36 33 21 27 32 32 28 34 31 32 33 43 42 44 45 46 47 50 50 49 51 52 53 54 55 55 56 58
31 31 32 31 33 31 29 30 31 31 32 34 32 29 34 33 26 19 29 22 29 20 30 24 31 29 31 40 38 41 43 44 45 47 48 48 49 50 50 51 51 52 54
29 29 29 30 30 30 27 28 30 30 32 33 30 31 29 29 26 21 25 25 21 26 26 24 29 30 28 30 31 37 38 43 45 45 46 46 47 48 48 49 50 50 52
28 28 28 28 29 29 27 27 27 27 28 30 29 29 27 25 24 27 22 24 20 27 23 29 26 27 25 21 30 29 38 39 42 44 46 46 46 46 47 47 47 48 49
26 26 26 25 25 27 24 24 24 26 26 25 29 29 29 29 24 21 25 20 25 20 25 27 28 28 20 24 27 33 34 36 39 43 45 45 45 46 46 46 47 46 46
24 24 24 23 23 25 22 21 22 21 25 24 26 28 25 26 26 24 18 21 19 20 24 25 27 23 22 22 26 30 34 36 41 42 44 44 44 45 45 45 45 44 45
24 21 21 20 20 20 21 22 20 19 20 22 23 23 25 24 20 20 19 19 17 19 22 23 24 22 24 26 26 32 34 36 38 40 42 43 43 43 43 43 42 42 42
20 18 18 17 18 17 19 19 19 18 19 20 19 21 24 24 23 24 21 16 15 18 19 20 20 23 23 23 25 31 32 33 34 37 40 41 40 39 39 40 41 42 42
18 16 15 14 14 14 15 16 18 19 17 20 17 19 22 22 25 24 19 19 19 17 17 18 21 21 21 26 26 29 23 30 31 33 36 37 36 35 36 37 38 39 40
15 13 13 13 13 13 14 14 17 16 17 18 18 19 19 21 22 20 21 22 21 20 19 18 19 20 24 23 24 21 22 29 31 33 33 33 33 34 35 36 36 36 37
11 12 12 12 13 14 14 14 16 17 16 18 17 16 17 19 20 22 22 23 24 22 20 21 20 21 21 20 24 24 24 30 32 33 32 31 31 32 34 34 35 37 36
11 11 12 13 14 14 14 15 15 16 15 16 16 19 20 22 22 22 24 24 23 23 22 21 21 22 22 24 25 25 27 28 27 30 31 31 31 31 33 32 31 32 33
12 12 13 15 15 16 16 16 16 16 16 16 17 21 23 21 22 23 24 23 23 23 23 21 24 26 26 26 28 30 27 23 22 26 29 30 29 29 29 30 30 31 35
13 14 15 15 16 18 17 17 17 16 16 16 19 21 23 21 21 23 23 24 24 24 25 25 23 23 24 29 25 21 19 18 17 24 28 29 29 30 31 32 36 32 30
14 15 15 16 17 17 17 17 17 17 18 20 22 23 23 22 22 23 22 23 21 21 22 23 26 25 30 24 21 18 17 19 19 20 26 28 29 30 30 29 29 29 29
15 14 14 15 16 15 13 20 20 20 19 20 21 22 22 24 27 25 21 22 22 24 29 28 24 25 24 19 18 18 18 19 22 28 22 21 23 23 23 27 27 28 29
13 14 15 15 16 13 24 25 23 18 17 17 19 21 21 26 25 27 28 28 27 24 24 26 27 22 20 19 19 19 22 25 17 20 20 21 22 21 23 24 28 29 29
13 15 15 15 15 14 24 25 26 18 17 18 21 22 21 20 25 23 27 29 28 29 33 24 21 20 20 21 26 25 22 21 21 22 22 21 21 21 21 20 27 28 28
14 16 16 15 15 13 23 25 27 20 19 20 21 21 22 22 24 24 22 24 29 25 22 19 19 23 26 22 19 20 24 24 24 21 21 19 19 18 20 21 27 28 29
15 15 15 14 13 13 21 24 24 20 20 20 20 21 22 22 26 28 29 29 20 17 19 26 27 25 24 24 24 24 23 21 18 17 18 19 19 20 20 21 22 27 29
15 16 13 13 17 11 20 24 24 20 20 20 21 22 27 25 29 34 23 18 17 17 22 20 16 18 20 20 25 23 24 20 19 17 17 20 20 21 20 21 23 23 24

GFSMA_sfc_dewp_003.txt.gz
Dewpoint
60 60 59 54 50 49 46 43 42 39 39 40 38 39 39 42 41 45 49 54 57 55 54 55 58 59 58 59 60 62 64 63 63 64 63 63 63 63 64 64 65 65 65
57 45 45 46 45 43 41 38 36 36 36 36 33 35 35 33 37 40 44 43 52 50 52 55 52 51 51 53 56 56 56 56 55 55 55 56 58 62 60 61 62 62 64
43 43 43 43 41 38 36 32 31 34 33 31 30 32 34 31 37 35 36 36 42 47 49 47 47 47 49 51 50 51 52 52 52 52 52 53 54 55 57 59 61 62 61
41 39 39 39 36 33 33 31 32 31 33 31 30 32 32 30 35 25 29 32 39 35 41 41 44 43 48 47 48 48 48 48 49 50 52 52 53 53 56 57 58 58 59
36 35 37 36 33 32 32 30 28 30 32 29 29 32 30 30 32 20 25 27 33 28 34 35 41 41 43 43 44 45 46 47 49 50 50 49 50 51 52 53 53 54 56
32 32 33 33 31 31 31 29 27 28 32 31 31 30 29 34 28 21 26 22 26 22 33 26 33 33 40 40 40 42 43 42 44 46 46 47 48 48 49 50 50 50 51
31 30 32 31 31 28 28 27 29 28 29 31 31 30 32 31 27 21 27 23 23 24 27 25 29 29 32 35 36 39 39 40 44 44 45 46 47 48 48 49 49 48 49
29 29 30 29 27 26 24 25 27 27 27 30 29 30 27 27 27 18 23 26 21 27 22 24 27 28 30 25 30 35 36 41 43 43 44 45 46 47 47 47 47 47 48
28 28 27 27 26 26 25 24 24 23 23 25 28 24 19 23 23 25 18 22 16 24 20 27 27 27 28 23 29 31 36 37 41 43 45 45 45 45 46 46 47 47 47
26 26 25 24 24 24 21 21 22 22 24 22 26 24 25 26 23 21 23 16 23 18 21 26 26 29 25 25 29 31 33 36 39 42 43 44 44 45 45 45 46 46 46
23 23 22 21 21 23 20 19 19 18 22 21 23 24 23 24 24 24 14 17 18 18 16 20 27 22 25 22 26 31 33 35 38 40 43 43 44 44 45 45 45 45 44
23 20 20 19 18 19 19 20 18 17 18 19 20 20 22 21 20 19 18 16 15 13 18 17 20 24 23 26 28 31 32 33 37 38 41 42 42 43 43 43 44 43 43
20 17 17 15 16 16 17 17 17 17 17 18 17 19 22 22 22 22 18 16 14 15 16 19 20 21 23 24 26 31 32 33 33 36 40 41 40 39 40 41 42 42 42
18 16 15 13 13 13 15 15 18 18 16 18 16 17 20 20 22 22 19 19 17 15 17 17 22 21 22 24 29 30 24 30 32 34 37 38 37 36 36 38 39 39 41
15 13 12 12 13 14 14 14 17 16 17 17 18 18 17 20 21 22 22 22 21 19 19 19 19 22 23 25 26 23 23 29 31 33 34 34 33 34 35 35 35 36 36
11 11 12 13 14 14 15 15 17 18 16 18 17 16 17 20 22 24 23 23 24 23 21 22 22 23 23 22 26 24 25 30 32 33 32 31 31 31 32 33 34 37 38
11 12 13 14 14 15 15 16 16 16 16 17 17 18 20 22 23 22 23 24 24 24 22 23 24 25 25 25 25 26 28 31 28 31 30 29 29 30 31 32 34 35 35
12 13 14 15 15 16 17 16 16 17 17 17 17 20 22 21 22 22 23 23 24 24 24 25 25 22 21 22 24 30 28 22 21 24 28 28 29 30 31 32 32 33 33
14 14 15 15 16 18 17 16 16 17 18 18 19 20 21 22 22 22 22 23 24 25 24 22 21 23 25 26 26 25 20 19 17 24 27 28 29 31 30 30 31 32 34
14 14 15 16 17 17 16 16 19 19 19 19 20 22 22 23 22 22 22 22 23 22 23 24 26 27 23 27 26 19 17 19 19 19 24 29 28 27 28 29 29 28 28
14 15 16 16 16 15 13 21 21 20 18 17 18 20 21 24 26 25 22 23 22 22 25 28 23 26 22 19 17 19 19 20 23 26 19 19 20 21 22 26 26 27 28
14 16 16 16 16 13 23 26 25 22 18 17 18 20 21 25 25 26 27 27 26 24 25 27 25 20 18 18 19 21 24 21 18 20 20 20 21 20 21 22 27 28 28
15 16 16 16 15 15 23 25 26 21 20 20 20 21 20 20 25 23 27 29 31 34 28 24 18 18 18 21 26 24 22 23 21 21 22 20 20 19 20 20 27 28 29
15 16 16 15 15 13 23 25 26 21 20 20 21 21 20 21 23 24 28 29 25 22 20 17 19 22 25 22 20 20 23 25 24 20 19 18 19 18 19 20 27 28 29
15 15 15 14 13 14 23 25 24 21 20 20 20 21 21 24 27 31 25 22 18 17 19 26 27 25 24 25 24 24 22 20 17 16 18 18 18 19 19 20 21 28 28
14 14 13 14 18 14 22 25 24 21 21 21 21 22 28 25 28 28 21 18 17 17 25 23 16 18 20 20 25 21 24 20 19 17 17 20 20 21 20 20 22 21 22

GFSMA_sfc_dewp_006.txt.gz
Dewpoint
59 59 52 48 46 43 41 37 35 35 32 32 30 33 34 30 36 40 43 51 50 53 56 53 54 53 53 56 57 56 57 57 56 56 56 57 58 59 60 61 63 64 64
53 46 46 44 41 40 35 32 32 33 30 29 26 30 33 29 36 32 36 39 45 49 49 49 49 49 52 52 52 52 53 53 53 53 53 54 55 55 56 58 59 60 60
43 44 42 38 36 33 30 29 29 32 29 27 25 29 31 29 27 27 28 35 37 42 43 45 46 47 49 49 50 50 50 50 50 51 52 53 53 53 55 57 58 58 59
40 39 38 35 32 31 30 28 29 29 29 27 26 28 30 29 25 21 25 32 30 30 36 41 42 43 45 45 46 47 47 47 49 51 52 51 50 52 52 53 54 54 55
36 36 34 32 30 31 29 27 27 28 30 26 24 28 29 29 25 21 24 27 23 27 30 33 37 38 40 42 42 44 45 44 44 44 47 48 48 49 49 50 51 51 51
32 33 31 29 29 29 27 25 25 26 31 29 28 28 29 33 26 21 26 24 22 26 28 24 29 31 37 39 39 41 42 41 42 43 46 46 46 47 48 49 49 50 50
30 31 31 29 27 27 24 24 26 25 25 30 28 27 30 30 30 27 22 24 21 23 24 23 23 28 30 37 36 37 39 40 42 44 45 45 45 47 47 48 49 49 49
29 28 28 27 25 24 23 23 24 23 24 27 24 27 23 23 24 16 22 23 18 24 22 20 22 23 27 29 30 35 35 38 42 43 44 45 46 46 47 47 47 48 48
27 26 25 25 24 25 23 23 22 21 22 22 27 21 14 17 24 24 21 21 15 22 20 23 21 21 27 27 29 30 35 36 39 42 44 45 45 45 46 46 47 47 46
25 25 24 23 23 23 20 20 19 21 22 20 23 22 22 23 18 19 20 14 19 15 20 20 18 24 26 25 29 32 34 35 38 40 42 43 44 45 46 46 46 46 46
23 23 21 20 21 22 19 18 18 17 21 20 21 22 21 22 23 20 13 16 16 16 16 17 21 17 19 24 25 29 34 34 37 39 42 43 44 44 45 45 45 45 45
22 20 19 18 18 18 18 18 17 16 18 18 19 19 21 19 20 18 18 15 15 15 16 16 18 22 23 24 27 31 33 34 36 39 41 42 43 43 44 44 43 44 44
19 17 16 15 15 16 17 17 17 16 17 17 16 18 21 21 21 21 20 18 17 16 16 18 19 21 21 22 24 31 31 33 35 37 40 42 40 39 40 41 42 42 42
18 15 14 13 13 14 15 16 19 18 16 18 16 17 19 20 21 21 20 20 17 15 15 16 20 20 22 23 27 31 25 31 32 35 37 37 36 36 37 38 38 39 39
15 13 12 13 13 14 15 15 18 16 17 17 18 18 18 19 21 22 23 23 21 17 16 19 20 22 24 25 26 24 24 30 32 32 34 34 35 34 34 35 34 35 36
12 12 12 13 14 15 15 15 17 17 16 18 18 17 17 20 21 24 24 24 23 22 21 20 22 23 25 24 26 25 25 30 31 33 34 33 31 31 31 32 32 33 34
11 13 14 14 15 15 16 16 16 16 17 18 18 19 19 20 23 24 24 23 23 24 22 22 23 24 23 21 21 23 25 25 28 36 32 30 29 29 30 31 32 34 36
13 14 14 15 16 16 16 15 16 18 18 18 19 20 20 19 22 23 23 22 23 24 23 22 24 22 21 22 23 26 24 27 27 26 28 28 29 29 30 31 33 33 34
14 14 15 16 16 17 16 15 17 19 19 19 19 19 20 21 21 22 22 22 23 23 25 24 21 22 23 26 25 26 26 23 18 24 27 27 28 29 30 31 30 31 31
14 15 16 16 17 16 15 15 20 20 19 19 19 20 20 21 21 22 22 22 22 21 21 21 22 25 26 27 23 18 16 19 19 19 25 26 28 28 28 28 28 28 28
15 16 16 16 15 14 12 21 23 22 19 19 19 19 20 23 26 24 21 21 21 22 24 27 27 25 21 17 16 18 18 20 22 21 19 19 20 20 21 26 25 27 27
16 16 16 15 15 13 23 26 25 23 20 19 19 20 21 24 23 28 28 28 28 31 26 23 22 18 16 17 18 20 24 21 18 21 20 22 22 20 20 20 25 27 28
15 15 15 15 14 14 23 26 26 22 20 20 21 21 21 20 25 22 27 29 32 28 25 20 17 16 17 21 26 24 22 22 20 21 22 21 20 18 19 18 25 27 28
15 15 14 14 14 14 24 25 26 22 21 21 21 21 21 21 22 25 27 29 23 21 19 17 19 22 26 22 20 20 23 24 23 19 19 19 19 17 18 19 26 27 28
14 14 14 14 14 15 24 25 25 21 21 21 21 21 22 23 27 29 26 23 19 18 20 25 28 25 25 26 25 23 22 20 17 16 17 17 17 18 18 19 20 26 26
14 14 14 15 19 15 23 25 24 22 21 21 22 23 26 24 27 30 23 18 18 17 24 24 16 18 20 20 25 21 22 19 19 17 16 19 19 20 19 18 20 20 20

GFSMA_sfc_dewp_009.txt.gz
Dewpoint
62 59 48 46 43 40 36 34 33 29 26 26 25 31 29 35 32 37 40 51 53 52 52 53 52 53 55 54 54 55 54 55 55 56 56 59 59 59 59 60 61 62 64
56 49 44 41 39 34 31 30 30 29 24 23 22 29 28 30 29 29 35 35 47 47 48 49 49 51 50 51 52 51 51 52 52 52 52 53 54 55 55 57 58 59 60
47 43 39 35 34 32 28 27 27 29 24 21 21 26 28 29 26 28 30 30 33 40 43 44 44 45 46 48 48 48 49 49 50 52 54 53 52 54 55 56 56 56 57
43 39 36 33 31 30 28 27 25 27 25 23 23 25 27 33 23 25 28 26 30 29 32 39 38 39 42 43 46 46 46 46 46 47 47 49 51 51 51 52 53 53 53
37 34 32 32 29 27 26 25 25 27 25 24 23 24 28 32 24 24 24 26 27 27 26 30 34 34 35 39 42 44 44 44 44 44 46 49 49 48 49 50 50 51 51
33 32 30 28 27 26 24 24 23 25 26 26 21 21 33 36 29 27 21 24 23 25 25 26 24 23 32 36 39 41 41 42 42 43 45 46 47 48 48 49 49 50 50
32 32 29 26 26 24 23 21 24 23 23 27 21 23 27 29 31 31 20 25 21 23 23 20 19 18 21 33 37 38 39 40 41 42 45 45 47 47 48 48 48 49 49
30 29 28 26 25 24 23 22 24 22 22 26 19 24 19 19 22 16 24 22 19 20 20 17 18 17 20 22 29 34 36 38 40 42 43 44 46 47 48 48 48 48 48
27 27 26 25 25 25 24 23 24 23 20 23 23 18 15 14 18 21 21 23 16 18 15 19 17 16 18 21 26 28 33 36 39 41 42 44 44 45 46 47 47 47 47
26 25 25 24 23 23 22 21 20 22 23 20 22 18 19 20 14 13 19 15 19 14 17 17 16 17 18 20 25 30 34 35 38 40 43 44 44 45 46 46 46 46 46
25 24 23 23 22 21 21 20 21 20 21 20 21 20 20 19 23 19 11 13 16 16 17 16 17 17 18 21 23 27 32 35 38 40 42 44 45 46 46 46 46 46 46
22 22 21 21 20 20 20 21 22 22 21 20 21 21 20 17 16 16 14 15 16 15 16 17 17 18 20 21 25 30 32 34 37 39 42 43 43 43 44 45 46 45 46
20 19 19 17 17 20 21 21 21 20 20 20 19 19 20 19 19 18 19 17 16 16 15 15 17 18 20 23 22 29 31 33 34 37 40 42 40 40 40 41 42 44 45
19 18 16 16 16 17 18 19 21 21 20 21 20 20 20 20 20 20 20 19 17 13 13 12 16 19 22 21 26 30 24 30 32 35 37 37 35 35 36 39 40 41 41
16 15 16 16 16 17 17 18 19 18 19 20 20 20 20 20 21 21 22 21 18 15 15 14 18 19 22 23 25 23 23 29 32 32 32 33 33 34 37 35 34 34 35
14 15 15 16 17 17 17 17 17 18 18 20 20 19 19 20 20 22 23 23 22 20 19 18 20 22 22 21 25 23 22 29 31 32 33 32 33 32 32 32 32 33 33
14 14 15 15 16 16 16 16 16 18 19 20 20 21 20 20 20 21 23 23 22 22 21 22 22 23 22 22 20 22 25 25 26 31 31 31 31 30 31 32 33 33 33
15 15 15 16 16 16 15 14 17 19 20 20 20 21 20 18 20 21 22 21 22 22 23 22 23 23 21 22 23 25 26 22 22 26 29 29 29 30 30 31 32 33 34
15 15 16 16 15 16 14 13 17 20 21 20 20 19 18 19 18 20 21 22 22 22 23 24 22 22 24 26 27 23 20 18 16 24 27 28 29 30 30 31 31 31 31
16 16 16 16 16 14 14 14 20 22 22 21 21 20 19 19 19 22 22 22 22 21 22 23 25 27 24 22 22 18 17 19 20 19 25 26 28 28 29 29 29 28 28
17 16 15 15 15 14 12 22 24 23 23 21 21 20 20 23 27 26 23 23 23 24 29 29 25 23 21 18 17 19 19 22 22 22 22 21 21 22 23 27 26 27 27
17 16 15 14 15 12 23 26 25 23 23 21 20 20 21 25 25 28 28 28 28 31 30 26 24 18 16 17 19 22 24 22 20 20 19 21 22 21 21 21 25 27 28
15 15 14 14 13 14 24 26 26 22 22 22 22 22 21 21 26 23 27 29 34 29 27 23 18 16 18 21 28 26 24 22 21 22 22 20 21 20 20 18 26 27 28
14 13 13 14 14 15 25 25 26 22 22 22 23 22 22 22 24 25 26 32 26 23 19 18 19 23 27 24 22 22 24 26 23 21 19 20 19 19 19 20 26 27 28
13 13 13 14 15 18 24 25 25 22 21 22 22 22 23 23 26 27 28 27 19 18 20 24 28 27 25 26 25 24 24 22 19 17 18 18 18 19 20 21 22 25 26
13 14 15 16 19 16 23 25 24 21 21 21 22 22 25 25 27 29 24 19 19 18 24 25 17 17 19 19 24 20 23 21 20 19 16 21 20 20 19 17 20 21 22

GFSMA_sfc_dewp_012.txt.gz
Dewpoint
61 60 53 49 47 45 42 40 35 29 26 25 23 26 27 29 30 36 41 52 52 52 52 52 54 53 53 54 54 53 53 54 54 55 55 55 57 57 57 57 60 61 62
61 53 46 44 42 38 33 29 28 28 24 22 22 23 25 28 29 34 34 41 46 47 47 47 47 48 49 50 50 50 51 51 51 52 55 56 56 55 56 56 59 59 60
53 46 40 38 35 31 28 28 27 27 25 22 22 23 24 26 28 31 30 32 34 41 42 42 42 42 43 45 47 48 48 48 49 48 50 50 51 54 54 55 56 56 56
46 41 38 35 30 30 29 27 25 26 25 24 23 23 24 28 26 26 26 26 29 26 30 38 38 38 40 40 43 45 45 45 46 47 47 47 49 50 51 51 52 53 53
39 35 34 32 29 28 27 23 24 24 24 24 21 20 27 30 26 22 25 27 27 28 26 28 31 29 33 39 41 43 44 44 44 45 45 46 48 50 49 50 50 51 52
37 34 32 29 28 27 24 24 23 24 24 23 19 21 33 34 29 29 27 22 23 24 24 24 22 23 28 32 37 39 41 42 43 43 44 45 47 48 49 49 50 50 51
33 33 31 28 27 25 23 21 23 23 23 23 21 24 26 28 32 32 19 21 22 21 20 19 19 19 19 29 31 35 39 41 42 42 43 45 46 47 48 49 49 50 50
33 32 31 28 27 25 24 24 26 23 23 23 20 24 21 20 22 23 22 19 17 17 18 18 20 18 20 20 26 33 35 39 42 43 44 44 45 46 47 48 48 49 49
29 30 29 27 27 27 26 25 24 23 22 23 21 19 17 17 16 20 21 19 17 16 17 20 19 18 19 20 24 26 31 36 39 43 44 45 45 46 47 47 47 48 48
28 26 26 25 25 24 24 21 20 22 23 21 23 16 18 17 14 14 18 17 16 15 18 19 18 18 19 20 25 28 31 35 39 42 43 44 45 46 47 47 47 48 48
27 25 24 25 23 22 22 22 22 21 22 21 21 20 19 19 18 19 16 16 17 18 18 18 18 18 18 20 22 25 31 35 39 41 43 44 45 45 46 46 46 46 47
24 23 23 23 22 22 22 23 24 23 23 22 21 21 20 19 17 18 17 17 17 18 18 17 17 17 19 20 23 28 31 34 37 39 41 42 42 43 43 44 44 44 46
23 23 21 20 20 22 23 23 23 23 22 21 20 19 20 19 19 18 18 18 17 17 15 16 15 16 16 21 21 27 31 33 34 36 39 41 40 39 39 40 41 41 42
22 21 19 18 17 18 19 20 22 22 22 21 22 21 21 20 21 20 20 19 17 15 14 13 14 15 18 19 24 29 24 30 31 34 36 37 35 35 35 36 38 40 41
19 19 18 17 17 17 18 19 20 18 19 21 21 21 21 21 21 21 21 21 19 15 14 14 14 16 19 20 23 21 22 28 31 33 33 33 33 34 34 36 36 37 36
17 18 17 17 17 17 17 18 18 18 18 20 20 21 20 20 20 21 21 21 20 19 17 16 16 18 19 18 23 22 22 28 30 32 32 32 32 32 33 33 33 33 34
16 15 15 15 15 15 16 16 16 17 19 20 21 22 22 20 19 18 19 19 19 20 18 19 18 19 20 21 20 22 23 23 25 29 30 30 30 31 32 33 34 34 34
15 15 14 15 15 15 15 13 15 18 20 20 21 23 22 16 17 17 18 18 19 20 20 20 21 21 20 22 23 22 20 17 18 22 27 29 30 31 31 31 32 33 34
15 15 16 16 15 16 14 13 14 18 20 21 21 21 19 17 16 17 17 20 21 19 21 22 21 23 25 25 24 21 18 17 16 24 27 28 30 30 31 31 32 32 32
16 16 16 16 16 14 14 14 19 21 21 22 22 22 20 18 19 19 20 21 20 21 21 22 25 29 26 24 22 18 16 20 20 19 24 26 28 29 30 30 30 30 29
17 16 15 15 15 14 12 21 23 23 22 21 20 20 19 22 26 27 24 23 22 23 27 29 31 26 23 18 15 18 19 22 23 23 23 22 22 22 24 27 27 28 28
17 16 15 15 15 11 22 26 26 22 21 20 19 18 19 24 23 27 27 27 26 29 31 30 27 21 16 15 18 21 25 24 22 22 21 21 23 22 23 23 26 27 28
16 15 14 14 13 14 23 26 26 22 21 20 21 22 20 18 25 21 25 28 30 33 31 25 20 16 17 19 27 29 25 24 22 22 23 22 21 21 22 19 26 27 29
14 14 14 13 14 13 23 25 26 21 20 20 22 21 20 21 22 24 25 30 29 24 19 17 18 20 25 27 25 22 24 25 24 22 21 22 20 20 21 22 27 28 29
13 13 14 13 13 13 20 25 25 20 19 19 19 19 21 21 25 27 28 29 20 17 19 23 26 29 27 26 25 23 25 24 21 19 19 19 19 20 21 22 22 24 26
14 13 14 13 15 13 18 24 24 20 19 18 18 19 24 24 26 29 25 19 19 17 21 26 19 18 20 20 24 21 25 25 23 21 18 22 21 20 21 19 20 23 24

GFSMA_sfc_dewp_015.txt.gz
Dewpoint
58 58 57 55 52 49 46 43 38 32 28 27 25 24 26 27 28 34 45 53 52 52 52 52 52 52 51 52 52 52 53 53 53 53 54 56 58 57 57 58 58 60 61
60 56 53 50 47 43 37 32 30 30 28 26 24 22 25 27 28 32 37 42 47 46 46 46 45 45 45 46 47 48 49 49 50 50 50 51 52 53 55 55 57 58 58
58 53 47 45 42 35 31 31 29 29 28 25 24 24 25 26 28 31 33 37 40 42 41 42 41 42 43 44 44 45 46 46 46 47 48 48 49 50 52 53 54 54 55
55 49 45 41 36 34 33 30 27 29 29 27 26 25 27 28 25 27 30 28 33 29 37 34 35 35 37 41 44 45 45 45 45 46 47 47 48 48 50 52 51 51 52
47 41 41 37 33 33 31 26 28 27 28 29 25 25 32 31 28 23 26 28 30 31 31 34 33 32 31 34 40 43 44 44 44 45 45 46 47 48 49 50 50 51 51
40 41 38 34 33 32 29 28 27 28 27 27 20 23 33 34 31 29 28 25 25 27 28 30 29 28 31 30 35 37 41 43 43 44 44 45 46 47 48 49 50 50 51
41 41 36 33 32 30 28 26 28 27 28 26 29 30 31 28 32 32 30 24 25 23 24 24 25 25 24 31 30 34 39 40 43 43 44 45 46 46 47 48 49 49 50
38 38 36 34 32 31 29 29 31 28 28 26 24 30 28 26 26 24 26 23 21 25 23 22 23 23 26 26 30 32 34 38 42 43 44 45 46 47 48 48 48 48 49
36 36 35 32 33 34 32 31 30 28 28 28 24 24 24 24 21 26 27 24 23 23 21 25 23 23 23 24 27 28 30 34 40 43 44 44 45 46 47 47 48 48 48
34 33 31 31 31 30 30 27 25 26 29 26 26 18 20 20 18 18 25 24 22 17 22 23 22 22 22 24 26 29 30 33 39 42 44 44 45 46 46 47 47 47 47
32 31 29 31 29 28 27 27 27 25 24 24 24 24 22 23 21 21 21 22 22 22 22 22 22 21 22 23 25 27 29 33 38 41 43 44 44 44 45 45 45 45 44
30 29 28 29 28 27 27 27 28 26 24 23 24 23 23 22 21 22 21 20 20 21 21 21 21 21 22 22 23 28 30 33 37 39 41 42 43 43 43 43 43 42 43
28 28 28 25 25 27 27 26 26 25 23 24 23 22 22 22 21 21 22 22 21 21 20 19 19 19 16 22 23 27 30 32 34 37 40 41 40 39 39 40 41 41 41
28 27 25 24 23 22 22 23 24 25 23 25 25 25 24 23 24 24 23 22 21 20 19 16 18 17 19 20 24 29 24 30 32 34 37 37 36 36 36 37 39 39 39
26 24 23 21 20 20 20 20 21 20 21 23 24 25 24 24 25 25 24 23 22 19 18 18 17 20 20 20 23 22 22 28 31 33 33 33 33 34 35 35 36 36 37
23 22 21 20 20 19 18 18 20 19 19 22 22 22 22 23 23 24 24 23 22 20 18 19 19 19 20 19 23 22 23 29 30 31 31 31 32 32 32 33 34 35 35
21 20 19 18 17 17 17 16 17 18 19 20 22 24 23 23 22 21 21 21 21 21 19 20 21 21 21 21 21 24 26 23 23 29 29 29 30 31 32 33 34 35 35
19 18 17 17 16 16 15 14 15 16 18 20 21 26 25 19 20 19 20 19 19 20 21 20 22 22 22 21 23 26 24 20 20 23 28 29 30 31 31 32 32 33 34
17 17 17 17 16 17 15 14 13 15 18 20 21 21 21 20 19 18 19 20 22 21 23 22 22 22 23 25 28 24 21 21 17 24 27 29 30 31 31 32 32 32 32
18 18 17 17 16 14 15 14 18 20 22 23 23 23 21 21 20 20 22 23 22 23 23 22 24 26 27 29 24 21 18 20 20 20 25 27 29 29 30 30 30 30 30
18 18 17 16 15 14 12 21 23 23 22 21 21 20 20 24 25 26 24 25 24 24 25 27 26 28 24 21 19 18 19 21 22 25 22 22 23 22 24 28 27 28 29
18 17 16 15 15 12 22 25 26 23 21 20 19 18 20 25 23 25 27 27 26 26 28 28 29 23 22 19 18 21 23 24 23 22 22 21 22 22 23 23 27 28 29
17 16 14 13 13 15 22 25 26 23 21 20 23 23 21 18 25 22 24 26 28 30 31 25 22 19 18 19 24 25 26 24 21 22 22 22 23 21 22 20 27 28 30
15 13 13 13 15 15 20 24 26 22 19 20 23 20 20 20 23 23 24 28 28 27 23 19 20 20 23 25 30 29 24 24 23 22 23 21 21 20 21 22 28 29 30
13 12 13 14 13 12 18 23 25 20 18 19 19 19 20 20 24 26 25 28 25 20 21 24 25 27 28 27 25 22 23 23 21 20 21 20 20 21 21 21 22 26 28
14 14 14 13 13 13 16 21 23 20 19 18 19 19 23 22 25 26 25 22 21 19 20 23 23 21 21 20 24 22 24 25 23 21 20 22 23 22 20 19 21 22 23

GFSMA_sfc_dewp_018.txt.gz
Dewpoint
59 58 58 56 52 48 45 41 34 31 29 27 25 23 25 26 28 45 49 54 52 52 52 51 50 49 48 49 49 49 50 51 51 51 51 51 53 54 55 57 57 59 59
59 56 53 51 46 41 35 32 29 31 29 26 25 23 24 27 28 37 43 48 48 46 45 45 45 45 45 46 46 46 47 48 48 48 49 49 49 50 51 52 54 55 56
55 53 49 47 41 34 33 32 29 30 29 28 27 26 24 25 27 30 38 39 42 45 41 40 40 40 41 44 46 46 47 47 47 47 48 48 48 49 49 50 52 52 52
52 48 45 42 37 35 34 30 29 31 30 29 27 24 26 26 25 27 27 30 32 35 38 35 34 35 36 39 43 44 45 46 46 46 47 47 47 48 49 50 50 51 52
51 47 44 38 35 34 31 28 29 29 28 28 25 23 32 30 26 24 26 27 28 28 28 33 35 35 33 35 39 42 43 45 45 45 46 47 47 48 48 49 50 51 51
42 40 40 35 35 33 30 30 29 29 28 27 23 25 31 32 29 28 27 26 25 24 25 24 26 28 33 34 37 37 40 42 43 45 45 47 47 48 49 49 49 50 50
41 40 37 35 34 31 28 27 28 28 28 27 28 28 30 29 32 31 32 23 23 22 20 22 24 25 26 31 32 34 38 40 42 44 45 45 46 47 47 48 49 49 49
41 37 36 34 32 31 30 29 29 30 28 27 24 27 25 26 26 24 26 23 20 21 22 20 21 21 23 25 29 32 34 37 40 43 44 45 46 46 47 47 48 48 48
37 36 34 34 33 35 33 30 28 27 28 27 22 24 22 22 21 24 23 22 20 22 20 23 22 21 21 22 28 28 30 34 37 42 44 45 45 46 46 46 47 47 47
35 34 34 33 33 33 30 27 27 26 28 25 27 21 20 20 20 19 24 23 22 20 22 23 22 21 21 23 26 29 30 32 37 41 43 44 45 45 46 46 46 46 46
33 32 32 32 31 31 26 26 26 24 25 26 25 24 22 23 21 21 20 22 23 23 23 23 22 22 20 21 23 25 29 33 37 40 43 44 44 45 45 45 45 45 44
32 31 31 31 29 29 28 28 27 25 24 24 24 24 24 23 22 21 21 20 20 21 22 22 22 22 22 22 24 26 29 31 35 38 41 42 43 43 43 43 42 42 42
30 30 31 31 29 29 29 28 27 25 24 23 22 23 24 23 24 23 23 22 22 21 21 21 20 20 18 21 21 28 30 31 33 37 40 42 40 39 39 40 41 41 41
28 28 27 28 26 25 26 26 26 26 23 24 22 24 25 25 25 25 24 23 21 21 20 19 20 19 20 21 26 29 23 30 32 34 37 38 36 36 36 37 38 38 39
26 26 25 23 23 22 22 22 24 22 21 22 22 23 24 25 25 25 25 24 22 19 18 19 18 19 21 21 24 23 21 28 31 33 34 34 33 33 34 35 35 36 36
26 23 22 22 21 20 19 20 21 19 19 21 23 21 22 24 24 25 24 24 22 21 18 18 19 20 21 21 24 23 22 28 31 33 32 32 31 32 32 33 34 36 36
23 22 22 20 19 19 18 18 17 18 19 20 21 23 23 23 24 23 22 22 21 21 19 18 20 22 22 22 22 22 23 26 26 31 30 31 30 31 32 33 34 34 35
21 20 20 19 18 18 15 14 15 16 18 19 21 23 24 22 21 21 21 20 20 20 20 20 22 22 22 22 22 25 27 25 22 26 29 29 30 31 32 32 33 33 34
19 18 19 19 18 19 16 14 14 16 18 20 21 22 22 21 20 20 19 21 23 22 24 23 22 23 23 24 26 30 24 20 20 24 27 29 30 32 32 32 32 32 32
18 19 19 19 19 17 16 16 20 21 22 23 24 24 22 21 21 20 22 23 23 24 24 23 23 25 26 27 27 22 20 20 20 20 24 28 30 30 31 30 31 31 31
19 19 18 17 17 16 18 23 25 25 23 22 21 20 21 25 26 25 23 24 25 25 24 24 25 24 28 22 21 21 19 19 20 23 25 22 22 22 23 27 27 29 30
19 19 17 17 16 13 25 25 26 25 23 21 20 20 21 26 25 26 26 27 26 26 25 25 28 23 21 21 19 19 20 21 21 25 21 21 22 21 23 24 28 29 30
18 16 15 14 14 21 25 23 25 24 23 22 21 22 22 19 25 23 25 26 27 29 29 25 22 21 19 19 22 23 24 27 24 22 22 21 22 22 22 21 27 29 30
16 15 14 15 17 19 22 22 25 23 21 20 21 20 20 20 22 23 24 25 26 27 27 23 21 20 22 23 26 29 26 23 22 22 22 22 22 21 21 22 28 29 30
14 14 16 15 13 16 20 20 23 22 20 19 19 19 20 21 25 26 25 23 24 22 23 25 25 27 28 27 25 22 22 21 20 20 22 21 21 21 21 21 22 27 27
15 16 15 13 19 13 16 19 22 22 21 20 20 20 24 23 26 26 23 22 21 20 20 22 23 22 22 21 24 21 23 22 21 20 19 23 22 22 19 19 20 21 22

GFSMA_sfc_dewp_024.txt.gz
Dewpoint
60 60 60 60 60 59 47 35 31 29 26 24 23 24 27 44 49 51 53 57 55 53 51 49 48 47 47 47 48 49 48 49 49 49 50 50 50 51 51 51 52 53 54
58 59 59 59 50 44 34 31 30 28 27 26 25 23 27 39 46 48 49 50 51 47 45 44 43 43 44 46 47 47 48 49 48 49 49 50 50 50 50 51 51 51 52
57 56 54 49 40 33 30 30 29 29 28 26 24 23 25 29 43 43 43 41 44 49 42 40 40 40 42 43 45 46 47 47 47 48 49 49 50 50 50 51 50 51 52
55 51 46 40 35 33 30 30 30 28 27 25 23 22 26 27 37 38 39 37 38 36 38 37 37 37 38 42 43 44 43 45 45 47 47 49 49 48 49 49 50 51 51
52 48 42 37 34 32 30 29 29 27 25 24 24 25 32 28 28 31 35 31 33 30 27 37 35 34 34 36 39 40 41 43 43 45 46 47 47 47 48 48 49 49 49
50 46 39 35 33 32 30 29 27 27 25 25 24 27 29 32 27 27 27 28 26 25 24 23 24 28 31 31 33 36 38 40 41 41 43 45 46 47 47 47 47 48 49
49 42 36 33 32 30 30 28 29 25 26 25 25 27 30 29 29 30 28 26 23 23 21 22 23 23 24 29 31 33 34 36 38 40 41 44 45 46 46 47 47 47 47
46 39 35 32 31 30 28 28 29 29 26 25 24 28 23 24 25 23 25 22 20 22 21 22 22 21 22 23 28 30 29 32 36 39 40 43 44 45 46 46 46 47 47
42 38 34 33 31 32 31 29 29 29 27 25 22 25 22 21 20 22 23 23 21 22 23 23 23 22 21 22 27 28 31 29 34 38 41 43 44 44 45 46 46 46 46
39 36 34 31 31 34 30 28 29 29 29 25 26 22 21 21 15 13 21 22 23 20 21 23 23 23 22 24 27 31 34 32 34 38 41 42 43 44 45 45 46 45 45
38 35 33 32 32 33 29 28 26 27 27 27 26 25 23 24 21 19 17 20 23 22 23 23 23 23 21 22 25 28 33 34 37 38 41 43 43 44 45 44 44 45 43
40 37 33 33 33 30 28 28 26 25 25 25 26 25 24 22 22 21 20 20 20 22 23 23 22 21 22 22 24 31 32 34 36 38 41 42 42 42 43 43 43 43 42
39 38 35 33 33 31 30 28 27 25 24 24 23 24 25 24 24 23 22 21 21 23 22 22 21 21 20 22 24 29 31 32 34 37 40 41 40 39 39 40 41 41 41
40 40 37 32 32 31 28 28 27 27 24 24 22 24 25 25 26 25 24 22 20 21 21 19 21 20 21 22 26 30 26 31 32 35 37 37 36 36 37 38 38 38 38
39 36 33 33 33 32 29 26 27 24 23 24 23 24 25 26 26 25 25 24 21 18 18 19 18 20 21 22 25 25 24 30 32 32 33 34 35 35 34 35 36 36 37
35 32 32 32 32 30 26 26 23 21 21 23 24 23 23 24 24 25 24 24 23 20 17 19 18 20 20 22 25 24 24 29 31 33 33 33 33 33 33 34 34 35 35
31 31 31 31 30 27 24 22 22 20 19 20 22 23 22 23 24 24 23 22 21 21 19 19 20 22 23 23 23 24 25 24 26 31 32 32 32 32 32 33 33 34 34
31 30 29 29 30 26 23 22 20 19 19 20 20 23 24 23 23 22 22 20 20 20 21 20 22 23 23 24 24 23 25 25 26 30 31 31 31 31 31 32 33 33 33
30 30 28 27 21 21 18 17 17 17 19 20 21 22 22 22 21 22 21 21 21 21 23 23 23 24 24 24 25 25 26 26 24 27 28 29 30 31 32 33 33 32 32
31 31 31 28 24 21 18 19 22 23 23 23 23 22 21 22 21 21 20 20 22 23 23 23 23 23 24 25 26 25 21 22 21 20 24 27 30 31 31 31 31 31 31
28 27 29 27 26 26 25 26 25 24 23 22 22 21 21 23 28 25 23 24 24 24 23 22 24 23 24 22 21 21 21 20 21 23 23 23 24 25 24 28 28 29 30
30 29 26 23 25 27 32 31 26 24 23 22 21 21 21 26 25 27 27 26 25 25 22 22 19 24 23 22 21 21 21 21 21 24 23 22 23 22 22 23 28 30 31
30 27 25 21 26 28 30 29 28 23 21 21 21 21 20 19 24 22 25 27 27 28 28 25 24 23 22 22 22 22 23 25 23 23 22 20 21 20 22 22 28 29 30
30 30 29 29 30 29 29 28 26 21 21 20 21 20 20 21 22 24 24 25 26 25 25 25 25 24 24 24 28 26 23 23 22 21 20 19 19 19 20 21 27 29 30
32 31 29 25 26 24 25 25 23 21 21 21 21 21 23 22 26 27 25 24 23 23 25 27 27 28 29 28 25 23 21 20 18 18 19 19 19 19 20 20 21 28 28
26 20 16 15 21 17 23 20 24 21 19 20 21 22 25 24 26 27 25 23 22 21 21 22 20 19 21 21 25 22 21 19 19 18 18 20 20 20 19 20 20 21 21

GFSMA_sfc_dewp_027.txt.gz
Dewpoint
60 61 60 60 60 58 52 42 30 28 24 24 23 25 39 48 50 52 54 57 56 53 52 49 48 48 48 49 49 49 50 50 50 50 51 51 51 51 52 52 52 52 53
59 60 59 59 59 56 39 32 30 28 27 26 24 24 34 46 48 49 49 50 53 49 46 45 44 44 45 46 47 47 49 49 49 49 50 50 51 51 52 52 52 52 52
59 59 58 58 52 41 31 30 29 28 28 26 22 24 28 42 46 46 43 42 45 49 44 41 42 42 42 45 45 45 46 47 47 49 48 49 49 49 50 50 50 51 52
57 57 56 54 38 32 31 31 30 28 26 24 22 23 26 33 41 41 39 37 38 36 39 39 37 36 39 40 42 43 43 44 44 46 47 48 48 48 48 49 49 49 50
56 54 52 44 34 32 31 30 29 26 24 24 23 28 31 28 38 37 36 34 36 29 32 37 36 34 34 35 38 39 40 41 42 43 44 46 46 47 47 48 48 48 48
53 50 43 37 34 32 30 29 27 26 25 25 26 29 29 30 28 32 32 28 31 26 25 23 24 26 34 31 34 37 38 38 40 41 42 44 45 46 47 47 47 47 47
53 48 42 35 33 31 30 27 27 23 24 26 27 28 29 30 28 29 28 27 24 23 21 22 23 23 24 34 34 35 36 35 37 39 40 42 44 45 46 46 46 47 47
52 45 40 35 32 31 29 29 29 28 25 24 25 28 24 25 25 23 25 22 21 23 23 22 22 22 22 24 29 36 36 33 35 38 40 42 44 45 45 46 46 46 46
51 46 40 36 32 32 30 29 30 29 26 24 23 26 23 21 22 22 22 22 21 23 22 23 23 22 22 23 27 30 35 35 35 38 41 42 44 44 45 45 46 46 46
51 45 40 35 32 33 30 30 30 30 28 25 25 21 21 23 17 14 20 22 23 20 21 23 23 22 21 24 30 35 35 35 37 40 42 43 44 45 45 46 46 46 45
50 45 42 36 32 33 32 29 29 29 28 28 27 25 23 24 21 18 15 19 23 22 22 23 22 21 21 22 24 30 33 35 38 40 42 43 44 45 45 45 45 45 44
45 43 42 40 35 35 35 33 29 28 27 27 26 25 25 23 22 21 19 19 20 21 23 23 22 21 22 22 24 31 32 34 36 38 41 42 43 43 43 44 44 43 42
43 41 41 41 40 38 37 33 29 27 26 25 24 25 25 24 24 23 22 21 20 22 22 22 21 21 20 22 24 29 31 33 35 37 40 42 41 40 40 41 42 42 42
46 43 42 40 39 37 33 31 31 28 25 26 23 25 25 25 25 25 24 22 20 20 21 19 21 20 20 22 26 30 26 31 32 34 37 38 37 37 37 38 39 39 39
44 42 41 37 37 35 33 32 31 26 25 25 25 25 25 26 26 26 26 24 21 18 18 18 18 20 21 22 25 26 24 30 32 33 34 35 35 35 35 35 36 36 37
42 39 38 36 35 34 32 30 27 23 24 25 25 24 24 25 25 25 25 24 24 21 18 19 18 19 20 22 25 26 25 30 31 33 32 33 33 34 34 34 35 35 35
41 39 37 36 33 31 28 28 29 26 25 24 24 23 23 23 24 25 25 23 22 21 19 19 20 20 21 23 24 25 26 24 25 31 32 33 33 33 33 33 34 34 34
38 37 35 32 31 30 30 28 26 26 25 24 25 27 25 23 23 24 23 21 21 21 20 18 21 22 23 24 24 24 24 25 26 29 32 32 32 32 32 33 33 34 35
38 36 32 31 29 28 28 29 30 26 23 22 22 21 22 22 22 23 22 22 21 20 21 22 22 24 24 24 24 25 25 26 24 27 29 29 30 31 32 32 32 33 33
34 32 28 29 28 29 30 30 29 27 26 24 24 23 22 23 22 21 20 20 20 21 22 23 23 23 23 25 25 24 21 22 21 21 25 27 30 31 31 31 32 32 31
33 31 32 32 32 32 30 30 28 26 24 22 22 21 22 23 27 26 23 23 24 23 23 21 23 21 23 24 22 22 21 21 21 23 23 23 24 24 24 28 28 29 30
32 33 33 32 33 34 36 34 28 23 22 22 22 20 21 23 24 27 27 28 25 23 20 19 17 23 24 22 22 22 22 22 21 23 22 22 23 21 21 22 28 30 31
33 32 32 33 34 34 34 33 29 24 21 21 21 21 19 19 24 22 25 27 27 28 28 25 23 23 22 23 23 23 24 24 23 22 22 20 20 20 21 21 28 29 30
32 32 32 33 33 34 36 35 30 23 21 21 21 20 20 22 23 24 24 25 25 25 25 24 24 24 25 25 26 28 25 23 22 21 21 18 19 19 20 20 27 29 30
33 33 33 33 33 33 34 32 24 20 20 20 21 21 23 23 26 27 25 23 24 23 25 26 26 28 29 28 25 22 21 20 18 18 19 19 19 18 19 19 20 27 28
32 33 31 31 32 26 27 25 24 20 19 19 21 21 24 23 26 27 25 23 21 20 21 22 21 19 21 20 25 21 19 18 19 18 18 19 19 20 18 20 20 21 20

GFSMA_sfc_dewp_030.txt.gz
Dewpoint
61 61 61 61 60 58 53 43 29 27 24 23 25 32 47 49 50 52 54 58 58 54 52 50 49 48 49 49 49 50 51 50 50 51 51 51 52 52 53 53 53 53 53
60 61 60 60 59 57 46 36 29 27 26 24 23 29 46 48 49 49 48 51 55 51 48 47 46 46 46 48 48 49 49 49 49 50 50 51 51 50 51 51 52 52 53
59 60 59 58 58 53 34 30 28 28 27 24 23 25 40 45 47 46 42 43 45 51 46 45 43 42 45 44 45 45 45 46 47 48 49 49 49 49 49 50 50 50 51
59 58 59 58 52 41 33 31 30 28 26 25 22 26 28 42 44 42 39 38 38 36 41 41 39 39 39 40 41 41 41 42 43 45 46 47 48 48 48 48 49 49 49
58 58 58 56 41 35 33 31 29 26 24 24 23 30 29 32 40 38 35 34 36 30 34 39 39 37 35 36 38 39 40 40 41 42 43 45 46 46 47 47 48 48 48
57 57 55 49 37 33 32 30 27 26 25 25 27 29 31 29 34 36 34 29 31 25 25 22 24 26 37 35 35 37 38 37 38 39 42 42 44 46 46 47 47 47 47
56 55 52 46 36 32 31 28 26 24 24 27 30 29 28 29 27 28 28 28 25 23 22 23 23 23 24 33 34 36 38 37 36 38 40 42 43 45 46 46 46 47 47
57 54 49 44 38 34 30 28 28 27 25 26 26 28 24 25 26 24 26 25 22 22 23 22 22 22 23 24 30 36 36 37 36 37 39 42 43 45 46 46 46 46 47
56 52 48 44 38 36 33 29 29 28 26 24 25 28 24 24 25 22 23 22 21 23 22 23 22 22 21 23 30 33 35 35 37 40 42 43 44 45 46 47 47 47 47
56 52 49 48 39 36 34 31 30 31 28 24 24 21 21 25 21 16 21 22 22 20 20 23 22 21 22 25 28 33 34 36 39 41 43 44 45 45 46 46 47 47 46
55 54 50 49 42 42 36 34 33 31 30 28 27 24 23 23 20 18 16 20 22 23 22 22 22 21 21 22 24 30 33 35 38 40 42 43 44 45 46 46 46 46 45
54 52 49 46 44 42 41 37 34 33 31 30 28 26 27 24 22 20 18 19 19 20 23 23 22 21 21 21 24 30 32 34 36 38 41 43 44 44 44 44 44 44 43
50 48 48 45 43 43 42 41 39 36 32 30 26 27 26 25 25 23 21 20 19 21 22 22 22 21 21 21 24 29 31 32 34 37 40 42 41 41 41 41 42 42 43
52 50 45 45 43 42 40 39 39 36 32 33 26 26 27 26 26 25 24 22 19 20 21 19 21 21 20 21 26 29 26 31 32 35 37 38 37 37 38 38 39 39 39
52 46 46 45 43 41 38 37 34 32 32 32 29 26 27 28 27 27 26 24 20 16 18 19 18 20 20 21 24 27 26 30 32 32 33 34 34 34 35 36 36 37 37
47 46 44 42 42 39 35 33 29 28 28 29 29 26 25 26 27 27 27 25 23 21 18 19 18 19 19 20 25 27 26 30 31 32 32 32 33 34 34 35 35 35 36
44 43 42 41 39 37 33 30 28 27 26 27 27 27 25 25 27 26 25 24 24 23 20 20 20 20 20 21 23 24 26 25 25 31 32 32 33 33 34 34 34 34 35
41 41 39 38 35 32 29 28 27 30 31 30 29 30 28 23 25 25 26 23 21 21 20 19 20 21 22 23 24 24 24 24 25 29 32 32 32 32 33 33 33 33 34
40 40 38 34 32 31 30 29 30 31 31 32 32 30 26 24 23 24 23 23 22 21 21 21 21 23 24 24 24 24 24 25 26 28 29 30 30 32 33 33 33 33 33
37 35 33 32 32 32 32 33 32 32 31 30 30 29 27 25 25 24 22 21 21 21 21 22 22 22 23 24 24 24 22 22 22 22 26 28 30 30 31 32 32 32 32
32 32 33 33 34 34 34 34 33 32 32 29 28 26 25 25 27 26 23 24 23 23 23 21 22 22 22 24 23 23 22 22 22 23 23 23 24 24 24 28 28 29 30
34 35 35 35 35 35 37 35 31 29 29 28 29 27 24 24 25 26 26 27 26 24 20 19 17 22 23 23 22 22 22 22 21 23 22 22 23 22 22 22 27 29 31
35 35 36 35 36 36 37 36 34 31 30 29 27 23 21 21 25 22 25 27 27 28 28 25 24 23 22 22 22 21 23 24 23 23 22 21 21 20 21 20 27 29 30
34 34 34 34 35 37 38 37 35 30 29 28 25 23 23 22 24 24 24 25 25 25 25 24 24 24 24 24 25 27 25 23 23 22 22 19 19 19 19 20 27 28 30
33 33 33 33 32 33 37 33 29 24 21 21 21 22 23 23 25 26 25 23 24 23 24 26 26 27 28 27 25 22 20 19 18 17 19 19 19 18 19 19 20 27 28
32 32 32 32 35 33 35 33 24 20 19 19 21 21 24 22 25 26 25 23 20 20 21 22 20 19 20 19 25 21 18 16 18 17 18 19 18 19 18 20 19 21 20

GFSMA_sfc_dewp_033.txt.gz
Dewpoint
66 65 65 65 64 62 58 47 36 30 28 28 29 41 49 53 54 55 56 59 59 55 53 51 50 50 50 50 51 51 51 51 51 52 52 53 52 52 53 53 53 54 54
65 65 64 64 63 61 56 45 35 31 30 27 28 40 49 52 52 51 52 52 56 53 50 48 48 47 48 48 49 49 48 49 50 50 51 50 50 51 51 51 52 52 52
63 64 64 63 62 60 50 40 32 31 31 27 27 36 47 50 50 48 47 47 47 52 49 46 44 46 44 45 46 45 44 45 46 48 48 49 49 49 49 49 49 50 50
61 63 63 62 61 57 45 37 33 32 31 29 27 30 41 47 47 44 43 41 41 40 45 42 40 40 40 41 41 41 41 42 42 44 45 46 47 47 47 47 48 48 49
61 60 61 62 60 54 42 36 33 32 30 29 27 31 31 42 45 40 38 38 38 37 38 42 41 38 36 37 38 40 40 40 40 41 42 43 45 46 47 47 47 48 48
61 60 60 60 56 50 43 35 33 30 30 28 25 31 34 33 42 40 36 34 33 35 33 29 29 31 38 37 37 38 40 40 38 39 40 42 43 44 47 46 47 47 48
60 60 60 58 53 49 43 35 32 30 29 31 33 32 33 31 35 36 36 32 32 28 27 27 27 27 27 33 34 36 39 40 38 38 39 41 43 44 46 47 47 47 47
59 59 58 56 51 47 40 34 34 31 29 32 31 32 30 30 29 29 31 30 29 26 26 25 25 25 27 27 33 34 35 37 39 39 40 42 43 45 46 46 47 48 48
59 58 57 56 54 48 41 35 33 32 31 30 31 33 29 30 30 27 28 27 27 25 25 26 25 24 24 28 32 36 37 38 39 41 43 44 45 45 46 47 47 48 47
59 59 57 55 54 50 45 39 35 34 35 31 28 25 27 30 29 25 25 25 24 23 24 26 24 23 25 26 29 32 33 34 37 40 42 44 45 45 46 47 47 47 47
60 59 56 54 53 51 48 45 37 36 33 33 33 27 25 25 23 25 24 24 24 24 23 24 24 22 23 24 27 30 32 34 37 39 42 44 45 46 46 46 46 46 46
60 58 56 54 53 51 48 46 43 40 38 36 32 30 30 28 25 25 24 22 24 24 24 24 24 23 23 23 24 29 30 33 35 38 41 43 44 44 44 44 45 44 44
57 57 56 54 53 50 49 47 45 43 40 38 33 31 30 29 27 27 27 23 22 22 23 24 24 23 21 23 24 28 29 31 34 37 41 42 41 41 41 42 42 43 43
57 57 55 54 52 49 48 46 45 44 41 39 37 34 33 30 29 27 27 26 22 21 21 20 23 22 22 22 25 28 26 31 33 36 37 37 37 37 37 38 39 40 40
57 56 54 52 50 48 46 45 44 41 39 37 37 35 32 30 29 29 28 26 25 20 18 20 20 22 22 22 23 25 26 29 33 33 33 33 34 34 35 36 37 37 37
54 51 50 49 48 46 45 44 42 38 35 35 33 30 29 29 29 29 29 27 26 23 18 21 20 20 21 19 23 26 26 31 31 32 32 32 33 34 34 35 36 36 37
50 48 47 46 45 43 42 42 40 36 32 29 29 28 28 28 29 29 29 27 26 25 21 22 21 21 21 22 23 25 26 26 25 30 31 32 33 34 34 35 35 35 36
45 45 44 43 41 40 39 37 34 32 30 30 32 33 32 31 32 31 30 28 27 25 24 21 21 21 22 23 25 25 24 24 24 27 31 33 33 33 33 34 34 34 34
43 42 41 39 37 35 32 30 30 32 33 33 34 33 31 31 30 30 30 29 28 27 27 23 21 23 24 25 25 25 25 25 24 27 29 30 31 32 33 33 34 34 34
41 40 37 34 33 31 31 32 34 34 33 33 33 32 32 31 30 30 31 31 30 27 26 23 23 25 25 25 25 25 23 23 21 22 26 28 30 30 31 32 32 32 32
35 35 34 34 35 35 35 34 34 33 33 33 32 32 32 31 32 32 30 29 28 28 27 28 25 25 25 24 23 23 22 21 23 25 24 23 23 23 24 27 28 29 30
35 35 35 36 37 38 39 38 34 31 30 30 30 31 31 33 33 34 33 32 31 30 29 27 27 23 24 24 23 22 23 24 22 23 22 22 23 22 22 23 27 29 31
37 37 37 38 37 37 38 38 35 32 32 31 31 30 30 30 31 29 29 29 27 28 28 27 25 24 23 23 26 26 26 25 23 23 23 21 21 20 22 20 27 29 30
35 35 36 36 36 38 39 38 36 32 31 30 30 29 29 29 28 26 25 27 27 26 25 25 25 24 25 25 27 28 26 24 22 21 21 20 20 19 20 21 26 28 30
33 33 33 33 33 34 37 36 31 29 28 27 28 25 23 22 23 24 25 28 25 24 23 25 26 27 28 27 26 23 24 23 20 18 19 19 19 19 19 20 20 26 28
32 33 32 32 35 33 33 32 28 20 21 20 21 21 23 22 24 25 26 27 22 20 21 22 21 20 20 19 24 21 23 22 21 20 19 20 19 19 20 18 19 20 21

GFSMA_sfc_dewp_036.txt.gz
Dewpoint
63 62 62 62 62 60 58 56 49 41 36 33 33 37 41 44 46 50 54 60 60 56 54 52 52 51 51 51 52 51 50 51 52 52 53 52 52 52 53 53 53 53 54
62 62 62 63 62 61 58 55 48 42 37 34 32 36 41 45 45 49 51 54 58 55 52 50 49 49 49 49 50 48 48 49 50 51 50 50 50 51 51 51 51 51 52
61 62 62 63 63 62 58 54 46 40 37 33 32 35 41 43 45 45 47 48 49 53 52 48 47 48 45 46 46 45 43 44 46 47 48 48 49 49 49 49 49 50 50
60 61 61 63 62 61 58 53 47 42 39 35 33 32 39 43 43 43 44 44 43 41 48 44 44 42 42 42 41 41 41 42 42 43 44 45 46 47 47 48 48 48 49
60 59 60 61 61 61 57 52 47 43 39 36 33 31 34 40 42 40 40 40 40 39 38 42 42 39 38 38 39 40 40 39 39 41 41 43 43 45 47 47 47 47 48
61 60 58 59 60 60 56 51 47 41 40 37 24 28 32 35 40 40 36 35 35 37 37 36 34 35 39 38 37 37 39 40 40 39 40 42 43 44 46 48 48 48 48
62 61 59 59 59 59 57 52 47 41 37 35 34 33 33 32 35 38 37 34 34 33 33 30 28 28 30 34 33 35 38 38 40 38 40 41 42 44 46 47 48 48 48
63 62 61 60 59 58 57 53 47 41 38 35 36 36 33 31 31 35 37 34 33 31 30 28 27 28 29 28 33 33 34 36 38 40 41 42 44 46 47 47 48 48 49
63 62 62 61 59 57 57 54 48 44 38 35 36 37 34 34 32 32 34 34 32 31 29 29 27 26 26 27 31 36 36 36 38 40 42 43 45 46 47 47 48 48 48
63 63 62 61 60 57 55 53 50 45 44 38 35 32 33 36 33 30 30 31 30 28 29 28 26 26 26 28 30 33 32 33 35 39 41 43 44 46 46 47 47 48 48
63 63 62 61 60 57 56 54 50 46 44 43 39 33 31 30 29 32 31 29 29 28 28 27 26 25 26 26 27 31 31 32 35 38 41 43 45 46 46 46 47 46 46
62 61 61 61 60 58 57 56 53 50 46 44 42 37 34 32 30 30 30 30 29 28 27 26 26 25 25 25 24 30 29 31 34 37 40 43 44 44 45 45 45 45 45
61 60 61 60 59 59 58 57 54 49 48 45 42 39 35 36 31 31 31 29 27 25 25 26 26 26 24 25 24 28 29 31 33 36 40 42 41 40 41 42 43 43 43
59 60 59 59 59 58 57 56 54 52 49 47 44 41 38 35 31 31 31 30 27 26 24 23 25 24 24 24 24 27 25 28 32 35 38 38 37 37 37 39 40 40 41
58 59 59 58 59 57 56 55 54 52 51 49 46 42 36 34 33 31 30 31 33 29 25 23 22 23 23 23 24 22 23 29 32 34 35 34 34 35 36 37 37 38 38
57 57 58 57 57 55 53 52 51 50 48 47 44 38 34 31 31 31 32 30 31 28 23 23 22 22 23 19 23 24 24 29 31 32 33 33 33 34 35 35 36 37 37
55 55 54 54 53 51 49 49 48 45 43 40 38 37 35 34 32 32 31 31 31 32 30 29 26 26 28 29 27 25 26 24 24 29 31 32 32 34 35 35 36 36 36
51 51 49 49 49 48 46 45 45 43 39 37 37 35 31 31 33 33 34 33 32 31 30 29 31 31 31 31 29 26 24 23 24 27 30 32 33 34 34 35 35 35 35
46 45 45 45 45 44 43 42 39 38 34 34 34 34 34 34 33 33 32 32 32 32 31 30 31 29 29 30 30 28 26 24 22 27 28 29 31 32 33 34 34 34 34
43 42 41 40 38 38 35 33 35 36 36 36 35 35 36 33 33 33 33 33 33 33 32 30 27 28 30 30 29 26 23 23 21 19 24 28 30 31 32 33 33 33 33
37 36 36 35 35 35 34 35 35 35 35 35 34 33 34 34 36 35 34 33 33 31 31 31 29 30 29 25 22 23 22 21 21 24 24 23 23 23 25 28 28 29 30
37 37 37 37 38 37 38 38 35 35 34 33 32 32 33 34 35 36 37 35 33 32 32 30 30 26 22 22 22 22 22 23 22 24 22 22 23 22 23 24 28 29 30
38 38 38 38 38 39 40 39 37 34 33 32 32 32 33 34 33 31 32 33 33 34 33 28 25 23 22 22 26 27 25 25 24 24 23 21 22 21 23 21 28 29 30
36 36 36 37 38 38 39 38 36 32 32 32 32 31 30 30 30 29 27 27 27 26 25 24 25 24 24 24 25 28 27 26 23 22 23 23 21 20 21 22 27 28 29
33 33 34 34 33 34 37 36 33 31 29 28 28 28 25 23 22 25 25 28 24 24 25 26 26 26 27 28 27 24 24 25 22 20 21 21 20 20 21 22 22 26 27
33 33 32 32 35 33 33 31 26 26 25 22 21 21 23 21 22 25 25 25 24 23 22 21 20 21 21 19 22 22 25 25 23 22 21 22 21 21 22 21 21 22 23

GFSMA_sfc_dewp_039.txt.gz
Dewpoint
63 62 60 61 59 58 58 57 53 47 43 39 38 39 40 42 44 50 57 60 60 57 55 54 54 53 52 53 52 51 52 53 52 53 52 52 53 53 53 53 53 53 54
61 62 61 63 62 59 58 56 53 47 43 39 38 38 39 43 43 47 54 55 59 57 53 52 52 52 51 52 50 49 49 50 50 51 51 51 51 51 51 51 51 51 52
59 59 60 63 63 62 58 56 53 47 44 40 38 38 40 41 43 45 49 53 51 55 54 50 50 50 48 49 48 45 44 45 46 47 47 48 49 49 49 49 50 50 50
59 59 60 62 63 63 61 57 53 47 45 42 40 38 40 42 42 42 45 47 48 46 51 50 49 46 45 45 43 42 42 42 42 43 43 44 45 46 48 47 48 48 49
59 59 59 60 63 62 60 58 54 48 47 44 42 39 39 41 42 41 42 44 45 44 45 48 49 47 44 42 41 41 40 39 39 40 41 43 43 44 45 47 47 47 48
61 60 59 59 60 60 59 58 54 50 48 45 37 35 38 40 42 42 40 39 40 42 41 42 42 39 42 40 39 38 38 40 41 39 40 41 43 44 45 46 48 48 48
62 62 61 59 59 59 60 58 54 50 48 46 40 38 39 36 37 41 40 38 38 38 39 40 35 36 38 40 36 35 36 37 39 40 39 41 43 44 46 47 48 48 48
64 63 62 61 59 59 59 58 55 50 47 43 41 43 39 36 34 35 39 37 36 36 36 35 33 33 36 34 40 34 33 35 37 39 40 42 44 46 47 48 48 49 49
65 63 63 62 61 60 59 59 56 51 47 43 44 45 44 41 36 35 38 38 36 36 34 34 32 32 33 35 37 37 38 36 36 38 40 42 44 45 47 48 48 48 49
64 64 63 63 62 61 60 59 56 52 49 45 43 40 43 43 39 35 36 36 36 33 33 34 31 31 31 34 36 37 36 33 34 37 40 42 43 45 47 47 47 48 48
63 63 63 63 62 62 61 59 57 52 52 50 46 42 40 38 38 38 33 32 34 33 33 32 31 30 30 32 34 35 33 31 34 36 39 41 43 45 47 47 47 47 47
62 62 61 62 62 62 61 59 58 55 53 52 48 42 40 38 33 35 36 33 31 31 31 32 31 31 31 31 31 36 33 30 32 35 38 41 43 44 45 45 45 45 45
60 61 62 62 61 61 60 59 59 56 55 53 49 45 41 41 38 35 37 34 34 31 30 30 30 31 27 30 30 32 32 31 33 36 38 40 41 41 41 42 43 43 44
55 58 61 60 61 61 60 59 58 58 56 54 52 49 45 43 43 42 41 34 30 28 27 27 29 28 29 28 31 31 28 31 31 35 37 38 38 37 37 39 40 40 41
55 55 58 59 59 60 59 59 58 57 54 53 51 50 48 46 42 37 38 38 38 31 31 26 26 27 28 27 29 26 25 27 31 34 35 35 35 36 36 37 37 38 39
54 55 57 58 58 58 58 57 56 55 53 52 51 50 46 40 38 36 35 34 36 35 32 31 29 28 29 26 29 30 28 31 31 33 33 33 34 34 35 35 36 37 38
52 54 54 55 55 56 55 54 53 52 52 50 47 44 40 39 38 38 37 37 35 36 33 31 32 32 32 33 34 34 33 30 27 31 32 33 33 34 34 35 36 36 37
50 50 49 50 50 51 50 50 49 47 48 43 42 40 38 37 35 36 36 34 33 34 33 32 33 33 33 33 33 33 31 27 28 29 33 34 34 33 34 35 35 35 36
47 46 46 45 45 45 45 46 44 43 43 41 39 37 35 35 35 34 34 33 33 34 33 33 32 33 33 34 32 31 30 29 28 30 30 29 29 30 33 34 34 35 35
42 40 39 37 38 36 36 37 37 37 37 37 37 36 36 35 35 34 34 33 33 32 32 31 32 32 32 31 32 30 28 29 25 21 24 26 30 31 32 32 32 32 33
38 38 37 36 35 36 36 36 36 36 35 35 35 35 35 35 36 35 34 33 33 32 32 32 32 31 30 28 28 27 25 24 24 25 24 25 26 26 26 29 29 30 30
38 38 37 37 37 37 38 38 37 36 35 34 33 34 35 36 37 37 36 36 35 33 33 32 30 27 26 25 24 24 26 25 23 26 25 24 26 24 25 25 29 30 31
38 38 39 39 39 39 40 39 37 34 34 33 32 32 33 34 34 33 35 35 35 34 32 31 28 26 24 24 29 28 26 26 24 24 24 23 24 23 24 22 28 29 30
35 35 34 35 36 38 39 38 36 32 32 32 32 32 32 32 31 29 27 29 29 28 28 26 26 25 26 26 26 27 27 27 25 24 25 23 23 22 23 24 28 29 30
33 33 33 33 33 34 37 36 33 32 31 31 31 30 27 24 26 26 26 30 26 25 25 27 27 27 27 28 27 26 26 24 23 22 23 23 22 22 23 23 24 28 28
33 33 32 32 33 33 34 32 30 27 26 22 22 23 22 23 23 24 26 26 26 24 24 22 21 22 23 23 23 22 25 23 24 24 23 24 22 23 24 23 24 24 25

GFSMA_sfc_dewp_042.txt.gz
Dewpoint
61 61 60 60 58 62 61 60 56 50 45 42 38 39 39 42 42 58 59 61 61 59 57 56 56 55 55 54 53 53 53 53 54 53 53 53 53 53 53 53 53 53 54
63 61 60 61 60 61 58 58 55 49 45 41 37 38 39 42 43 56 56 57 60 59 56 55 55 54 54 54 51 51 51 51 52 51 51 51 51 51 51 51 51 52 52
60 62 61 62 62 61 61 57 54 50 45 40 39 38 40 41 43 48 55 53 55 57 57 53 53 53 53 53 50 48 47 47 48 47 47 48 49 49 49 49 50 50 51
59 59 60 62 63 62 61 59 55 49 45 41 40 39 40 42 43 43 49 52 50 49 54 55 53 52 50 50 47 45 45 44 45 43 43 44 45 46 47 48 48 49 49
60 59 59 61 63 62 61 61 56 48 46 44 41 39 39 42 42 42 43 46 48 48 46 51 54 52 50 47 46 45 44 41 41 41 41 42 43 44 45 46 48 48 48
60 59 59 59 62 62 62 61 55 51 48 46 40 37 38 40 42 42 41 42 42 44 43 42 43 42 50 46 45 44 42 41 41 40 40 40 42 42 44 45 46 47 48
62 61 60 59 60 61 61 59 56 52 49 46 39 36 37 35 35 41 41 40 39 39 41 41 40 39 41 45 44 41 39 39 40 41 40 40 41 43 45 46 47 48 48
64 63 62 61 59 59 59 59 56 52 49 46 38 39 36 36 35 34 41 38 37 38 38 39 36 36 38 39 37 39 37 37 38 39 40 41 43 45 46 47 48 48 49
65 64 63 62 61 59 59 59 58 53 49 45 42 43 41 39 34 35 35 40 36 36 36 35 32 31 34 35 39 38 37 40 40 40 41 41 42 44 45 47 47 48 48
64 64 64 63 63 61 60 60 59 56 50 45 43 43 44 41 36 32 35 38 37 34 33 35 32 30 30 35 37 40 42 38 37 37 39 40 42 43 45 47 47 47 48
64 64 64 64 63 63 62 59 59 57 52 48 46 46 45 39 38 37 32 33 36 36 34 33 32 31 29 32 35 41 41 37 36 37 38 40 41 43 45 46 47 47 47
61 62 62 62 62 63 62 61 60 58 54 51 48 49 46 43 39 38 38 33 32 33 34 33 31 31 30 31 34 39 39 36 36 36 38 39 41 42 44 44 45 45 45
58 60 61 61 61 62 62 62 60 59 55 53 52 49 47 48 45 42 42 36 33 32 32 33 32 31 29 30 36 39 37 35 34 35 38 39 39 40 41 41 42 43 44
54 56 60 60 60 60 61 61 60 59 57 55 54 51 48 47 47 46 47 44 39 34 30 29 30 30 29 29 34 36 33 34 34 33 37 39 38 38 38 39 40 41 41
54 54 55 59 58 60 60 60 60 59 58 56 55 53 49 49 48 47 46 46 44 36 34 35 36 37 35 34 36 31 26 29 31 31 34 36 36 37 37 38 38 38 39
52 52 54 54 55 58 59 58 57 57 55 54 52 51 50 45 43 43 42 41 43 41 35 36 35 36 37 34 34 33 31 34 36 37 36 35 35 35 35 36 37 37 38
50 50 51 51 52 53 54 54 53 52 52 51 49 48 43 41 40 39 39 39 38 39 36 33 34 34 33 33 35 36 36 36 35 37 36 34 34 35 35 36 36 36 37
48 47 47 47 47 48 49 49 49 48 49 46 43 42 40 39 39 38 37 36 36 37 37 33 33 33 34 35 34 34 33 31 29 30 33 34 35 35 35 34 34 35 36
43 41 40 40 40 41 43 42 42 43 42 42 41 39 39 37 36 36 36 36 36 36 35 35 33 33 33 34 34 34 32 31 29 32 33 32 30 30 31 33 35 35 35
38 37 36 36 36 36 37 38 38 37 37 37 37 37 37 36 35 35 36 34 34 33 33 33 32 32 33 34 33 32 30 30 30 27 25 27 29 30 32 32 32 32 32
38 38 37 37 37 37 37 37 36 36 36 35 36 36 36 37 36 36 34 33 33 32 32 32 32 32 31 30 29 29 29 27 25 25 25 25 26 26 27 29 29 29 30
39 39 38 38 38 38 39 38 36 35 34 34 33 33 34 37 38 38 38 37 34 33 32 32 31 27 26 26 27 25 25 23 21 25 24 23 25 25 26 26 29 30 31
36 36 37 38 38 38 39 38 37 33 33 32 32 32 33 34 34 33 37 37 36 35 33 31 28 27 24 24 26 25 24 23 23 25 24 23 24 24 25 24 29 29 31
34 34 34 35 36 37 38 37 35 31 31 32 32 32 31 31 32 31 31 31 30 29 28 27 26 26 25 26 25 24 25 25 25 25 24 22 23 22 23 24 29 29 30
33 33 33 33 33 34 36 35 31 28 29 30 31 31 31 31 31 28 26 27 26 25 26 28 26 26 27 27 27 25 21 18 20 22 23 22 22 22 23 23 24 28 29
32 32 32 32 32 28 31 28 29 29 28 27 25 24 22 22 24 25 26 25 25 22 23 21 20 22 23 21 23 23 22 12 14 16 23 20 22 23 19 24 23 24 24

GFSMA_sfc_dewp_045.txt.gz
Dewpoint
60 61 61 60 62 64 63 61 59 56 52 44 41 39 39 42 59 60 61 62 63 62 59 58 57 57 56 55 54 55 54 55 54 54 54 54 53 53 53 54 54 54 54
61 60 60 60 59 62 62 62 59 54 46 43 39 38 39 42 52 58 59 60 62 61 59 58 57 56 56 55 54 54 53 54 53 52 52 52 52 52 52 52 52 52 52
61 61 60 60 59 60 60 58 57 51 45 42 38 37 39 40 50 56 56 56 58 60 60 57 56 56 56 55 53 52 52 51 50 50 50 50 49 49 50 50 50 50 51
60 61 61 61 61 60 60 60 56 52 47 42 39 38 39 41 42 54 54 53 53 53 58 58 56 55 55 55 53 51 50 49 48 47 47 46 46 46 48 48 48 48 49
59 59 60 61 62 62 61 60 58 51 46 43 40 40 39 40 42 44 53 51 50 50 50 56 57 57 55 53 52 50 49 47 47 45 45 45 44 45 45 46 47 47 47
60 59 59 60 63 62 61 60 59 51 47 45 41 39 39 40 42 42 43 50 49 48 46 46 50 50 54 52 50 49 49 46 45 44 44 44 44 44 45 45 46 46 47
63 60 60 59 62 62 61 61 59 53 48 46 41 38 37 36 37 41 42 42 45 46 44 43 42 41 48 53 49 48 48 46 45 45 44 44 44 44 45 46 47 47 47
65 64 62 60 60 61 61 61 59 53 51 46 43 37 34 36 36 34 41 40 40 41 43 41 40 38 40 43 44 47 45 45 44 45 46 45 45 45 46 46 47 47 47
64 64 63 62 61 60 60 61 60 57 53 50 46 43 39 37 36 35 34 41 40 39 39 40 39 37 37 40 44 44 43 42 43 45 45 46 46 46 46 46 47 47 47
64 64 64 63 62 61 60 59 60 58 55 51 49 43 47 42 37 35 38 38 41 37 37 38 38 34 35 36 40 42 43 42 44 45 45 45 45 45 45 46 47 47 47
64 63 63 63 62 62 62 60 59 57 55 54 50 48 46 43 39 37 36 40 43 41 38 36 35 32 32 35 37 41 43 43 42 42 44 43 44 44 45 46 46 46 46
60 63 63 63 62 61 62 61 60 59 57 54 50 49 47 46 44 41 42 42 43 42 39 36 33 32 31 34 37 43 45 42 41 40 42 41 42 43 44 45 45 44 45
54 58 61 61 60 60 60 60 60 60 59 56 52 50 49 49 48 46 44 41 40 41 40 38 36 34 30 33 35 44 44 41 39 38 39 41 41 42 42 43 43 43 43
53 55 56 59 59 59 59 61 59 58 57 56 55 52 51 50 50 47 47 44 41 39 36 36 37 35 32 33 39 42 38 39 37 35 40 43 42 40 40 41 41 41 41
51 52 53 54 57 58 58 58 59 59 57 55 55 54 52 51 50 48 49 48 45 42 37 37 38 39 39 40 42 39 39 41 41 42 41 42 39 39 40 39 39 40 40
50 50 50 51 52 53 55 56 57 55 56 55 54 53 50 48 48 47 46 45 46 44 40 38 37 38 40 41 42 39 38 40 40 41 40 41 40 40 40 38 38 38 39
47 47 48 48 48 49 50 50 51 52 52 51 50 50 46 45 43 41 41 42 42 43 41 34 35 36 36 38 39 37 38 37 37 39 40 42 41 37 36 37 37 38 38
40 39 39 40 40 43 44 47 47 47 47 45 45 43 41 40 39 39 39 38 39 39 37 34 34 33 35 35 36 35 36 36 36 37 38 37 35 35 37 36 35 34 34
37 37 36 36 36 38 39 40 40 40 41 41 41 40 39 38 37 37 37 37 37 38 36 35 33 33 32 34 34 35 34 34 32 33 35 35 34 32 31 32 33 34 35
37 37 36 36 37 37 37 37 37 37 37 37 37 37 37 37 36 36 36 35 34 34 34 34 33 32 33 34 34 33 32 31 30 29 30 28 29 30 31 32 32 31 32
38 38 38 38 38 38 37 35 35 35 35 36 36 36 37 37 37 36 35 34 34 33 33 33 32 32 32 32 31 31 30 29 26 26 24 25 25 25 26 29 29 30 30
38 38 38 38 37 37 38 38 35 34 34 34 33 34 35 36 38 39 38 36 35 34 33 32 32 30 30 28 28 28 25 23 21 25 24 23 24 24 25 26 30 31 31
36 35 36 37 37 37 38 38 37 33 33 32 33 33 33 34 33 32 36 37 36 37 34 32 28 28 25 24 24 24 24 23 22 24 24 24 24 24 25 25 30 30 30
34 34 34 35 36 37 38 36 35 28 29 30 31 29 31 30 32 31 31 31 30 28 27 27 28 26 25 25 26 24 24 24 25 25 25 20 23 22 23 24 29 29 30
32 32 33 33 33 34 34 33 29 24 25 26 28 29 28 29 29 25 27 27 26 25 25 29 27 26 26 27 26 25 20 17 19 22 23 22 22 22 23 23 24 27 28
32 32 31 26 30 23 28 28 28 27 24 25 25 22 24 24 26 27 26 23 23 22 23 22 20 21 22 21 24 22 21 12 12 13 22 20 22 23 18 22 23 23 24

GFSMA_sfc_dewp_051.txt.gz
Dewpoint
60 60 60 61 62 62 62 60 59 58 55 49 48 46 43 40 45 59 61 63 65 65 63 61 59 59 57 56 56 56 56 55 55 55 55 55 55 55 55 55 55 55 55
60 60 61 61 61 62 62 61 60 59 58 55 51 44 41 40 44 57 60 61 64 65 64 61 60 60 58 57 56 56 56 55 54 55 54 54 53 53 53 54 54 54 54
61 60 60 60 61 61 62 61 61 60 58 55 50 45 40 38 41 56 59 59 61 63 64 61 61 59 59 58 57 57 56 55 54 54 53 53 52 52 52 52 52 52 52
62 61 60 60 60 59 60 61 61 59 58 56 51 46 40 39 40 49 57 58 58 59 61 63 62 60 59 58 57 57 56 55 54 53 53 51 51 51 51 50 50 51 51
62 61 60 60 60 60 59 59 59 58 56 55 50 46 41 39 39 42 54 56 56 57 56 59 62 61 61 59 58 57 56 54 53 52 52 51 50 50 50 50 49 49 49
60 60 61 61 60 60 59 59 58 56 55 54 51 46 42 40 40 41 47 55 55 55 54 54 55 58 60 60 58 57 56 55 53 51 50 50 49 49 49 49 49 49 49
62 60 60 60 61 61 60 60 59 58 57 50 46 44 41 40 39 40 42 48 53 53 52 52 52 53 55 60 59 58 57 55 53 52 50 49 49 49 49 49 49 49 49
64 63 61 60 60 60 60 60 59 57 56 52 51 45 46 45 39 38 39 42 45 53 51 50 49 50 51 53 54 58 57 55 54 52 50 49 49 49 49 49 49 50 49
64 63 63 62 60 59 60 60 59 58 58 52 51 54 44 43 41 40 36 38 41 46 49 49 48 48 49 50 52 54 57 56 54 53 51 50 49 49 49 49 50 49 49
61 62 62 62 62 60 59 60 60 60 57 56 49 51 50 45 45 44 41 37 37 41 42 48 48 47 47 47 49 52 54 54 52 51 50 49 50 50 50 49 49 48 49
50 57 60 61 61 60 60 59 58 58 58 59 54 49 50 48 45 46 49 47 44 46 45 41 45 46 45 44 45 48 52 52 51 49 47 48 50 50 50 48 48 48 49
52 53 55 58 60 60 59 59 58 57 58 58 58 55 52 49 49 46 45 47 45 46 45 43 41 42 44 43 44 48 51 51 50 50 49 49 49 49 47 47 48 50 50
51 51 52 53 56 60 60 59 57 57 57 57 56 56 54 54 53 50 49 48 46 46 43 43 46 45 44 43 44 48 50 51 52 52 51 49 47 47 45 46 48 48 49
50 50 50 51 52 54 56 56 56 56 56 57 56 54 53 54 52 51 50 48 45 43 42 40 40 40 42 42 44 47 47 50 49 50 51 50 49 48 48 48 48 48 49
48 48 48 48 49 51 52 56 58 57 56 55 56 55 53 51 50 51 51 50 48 44 43 43 40 40 41 41 44 46 46 48 49 49 48 49 47 47 47 47 47 47 47
42 43 45 45 46 46 48 49 50 51 52 51 51 52 52 50 49 49 48 48 48 47 43 42 39 39 41 42 44 44 45 48 48 47 47 46 46 46 46 46 46 45 46
38 38 39 40 41 41 42 44 44 45 46 46 45 45 43 44 43 43 43 43 43 43 42 40 37 37 38 41 41 40 43 41 44 46 46 46 46 45 45 44 44 45 45
37 37 37 37 38 38 39 39 40 40 40 40 42 42 40 41 40 40 40 39 39 40 39 38 35 35 36 37 38 38 40 40 39 40 43 43 43 43 43 44 43 41 40
37 37 37 37 36 36 36 36 37 37 38 38 37 37 37 38 37 38 37 37 37 37 36 36 34 34 34 35 34 35 36 37 38 38 40 42 42 42 42 42 42 40 37
37 37 37 37 37 35 35 35 35 34 35 36 37 37 36 36 36 36 35 35 35 35 35 35 34 33 34 34 34 34 33 35 35 37 38 38 37 35 36 35 34 34 34
37 36 36 36 36 36 37 34 34 35 35 36 36 36 38 40 39 38 35 34 34 34 34 34 34 34 33 33 32 34 32 33 33 33 28 27 25 25 25 28 29 30 31
37 37 37 35 36 35 38 37 36 35 34 34 33 33 34 35 36 39 39 38 37 33 33 32 32 30 31 31 32 31 29 26 22 25 23 22 24 23 24 25 29 30 31
36 36 36 37 37 36 37 37 35 33 32 28 26 25 30 31 31 28 31 32 31 32 33 30 26 25 24 24 23 21 23 20 21 23 24 23 24 23 24 24 29 31 31
34 34 34 34 33 34 35 35 33 23 23 25 24 18 19 21 25 27 25 25 26 24 27 26 26 25 25 25 24 21 22 22 24 25 25 18 22 22 23 23 29 30 31
33 33 32 29 24 25 31 30 26 18 21 21 23 22 22 24 28 30 25 24 24 23 25 29 28 27 27 27 26 24 22 16 18 21 23 22 21 22 23 23 24 29 30
31 27 23 20 28 19 29 27 24 21 18 18 18 20 27 27 28 28 24 23 22 22 23 23 20 20 21 19 21 23 20 10 10 12 20 19 21 22 17 20 23 23 23

GFSMA_sfc_dewp_054.txt.gz
Dewpoint
60 60 59 60 61 62 62 61 59 58 56 52 47 46 46 42 41 49 59 62 66 66 64 63 60 60 58 57 56 55 56 54 55 55 55 54 54 54 55 55 55 55 55
60 59 60 60 60 61 62 61 60 59 58 57 56 52 46 42 40 46 57 60 64 65 65 63 61 60 60 58 57 56 56 55 54 55 55 54 54 54 53 54 54 54 54
61 60 60 59 60 60 61 61 60 59 58 58 56 53 47 42 40 43 55 58 60 63 65 63 62 61 60 59 58 57 56 56 55 54 54 54 53 53 53 53 53 53 53
62 61 60 60 60 60 60 60 60 59 58 58 57 56 50 43 40 40 52 57 58 60 62 64 64 62 61 60 59 58 57 56 56 54 54 53 52 52 52 51 51 52 52
64 62 61 61 60 60 59 59 59 59 57 57 57 56 52 47 41 39 44 53 56 58 58 60 62 63 63 61 60 59 57 56 55 55 54 53 52 52 52 51 50 50 50
62 62 62 61 60 60 59 58 58 57 58 57 56 54 50 48 43 41 40 47 54 56 56 56 57 59 61 62 60 59 58 57 56 54 53 52 52 51 51 51 51 50 50
60 60 60 60 60 60 60 59 58 58 56 53 51 51 47 45 43 42 41 45 49 54 54 55 55 55 56 61 61 59 59 58 57 55 53 52 51 51 51 50 51 50 51
64 63 60 60 60 60 59 59 58 56 56 52 54 48 51 50 43 41 40 41 42 51 53 53 53 52 53 54 57 60 59 58 57 56 54 53 51 51 51 50 51 51 51
63 63 63 62 60 59 59 59 58 58 58 52 51 56 48 48 45 45 39 39 39 44 49 51 50 50 50 51 54 57 59 59 57 56 56 53 52 51 51 51 51 51 51
54 60 61 62 62 60 59 59 59 59 57 58 51 52 52 48 49 49 45 39 37 38 42 47 49 49 49 50 51 53 55 58 57 55 56 56 53 52 52 51 51 51 50
49 53 55 57 59 60 61 59 58 57 57 58 56 52 52 49 47 48 50 51 46 45 44 43 45 47 47 48 48 50 54 55 57 57 55 56 56 56 54 52 52 50 50
52 51 52 53 57 58 59 60 59 58 57 58 58 55 52 51 49 47 47 47 49 47 46 44 41 43 45 46 46 49 52 53 55 56 57 57 55 54 56 54 51 52 51
50 50 50 51 52 54 58 60 59 59 57 57 57 57 55 55 53 51 50 49 48 47 45 45 46 45 44 43 44 48 50 52 54 56 57 57 54 55 53 53 53 52 50
49 49 48 49 49 51 53 57 58 58 57 57 57 56 55 52 53 50 50 47 47 45 42 44 41 40 41 41 44 47 47 49 52 54 55 55 54 53 52 51 50 49 49
46 45 46 46 47 48 49 54 55 55 56 55 55 55 54 53 51 51 51 50 49 44 44 43 42 39 40 41 43 44 44 47 49 51 53 53 52 51 50 49 49 49 49
40 40 41 42 42 43 45 47 49 50 50 49 50 48 47 47 47 46 47 47 47 46 44 42 40 39 40 42 44 43 45 46 47 49 52 51 50 49 48 48 48 48 47
38 38 39 39 39 39 40 42 42 43 45 44 43 43 42 43 42 42 43 43 43 43 42 41 38 38 38 40 40 41 42 43 44 49 49 47 47 46 46 47 46 46 45
37 37 37 37 37 37 37 38 38 39 39 38 39 40 39 40 40 40 40 39 39 40 39 38 35 36 36 37 38 39 40 40 40 42 44 44 44 44 44 44 44 44 44
37 37 37 36 35 35 35 35 35 36 36 36 35 35 35 35 34 36 37 37 37 37 37 37 35 35 34 35 35 35 36 37 38 39 39 40 41 43 43 44 43 43 43
36 36 36 37 36 35 35 35 35 35 36 36 37 38 37 35 33 33 34 35 34 35 35 35 34 34 34 34 35 34 34 36 35 38 39 39 40 40 39 39 38 36 35
36 36 36 37 36 37 36 35 35 36 36 35 35 36 37 39 39 38 36 35 35 34 34 34 33 33 33 32 32 33 32 32 33 34 30 28 26 26 25 28 28 29 30
37 37 37 36 36 36 38 37 36 34 33 32 32 32 33 33 33 37 36 37 36 32 30 25 25 27 27 27 27 27 25 22 21 24 23 22 23 23 24 24 29 29 30
36 36 37 36 35 36 37 36 35 31 25 23 24 24 28 30 28 25 29 30 30 31 31 28 25 24 23 23 21 20 22 19 20 23 24 23 24 23 24 24 28 30 31
35 34 33 30 31 33 35 34 31 20 24 25 19 16 17 19 25 26 25 25 25 23 28 25 25 25 25 24 24 21 22 21 24 24 24 16 22 21 22 23 28 30 31
33 32 30 25 23 24 30 30 25 17 21 20 21 23 24 25 29 30 25 24 22 23 25 28 28 27 27 27 26 24 19 15 18 21 22 21 21 22 23 23 23 30 31
32 28 24 22 27 19 28 26 23 20 17 17 19 21 27 27 27 27 24 22 20 21 23 21 19 19 19 17 21 23 19 9 10 11 19 18 20 21 16 20 22 22 23

GFSMA_sfc_dewp_057.txt.gz
Dewpoint
62 61 62 62 63 65 65 65 63 61 60 58 54 49 47 48 45 45 49 60 64 67 66 63 63 60 59 58 57 56 56 54 54 55 55 54 54 54 55 56 56 56 56
62 61 60 60 61 62 63 64 63 62 61 60 60 59 56 51 47 44 45 52 62 66 66 65 63 61 61 59 58 57 56 56 55 55 55 54 53 53 53 54 54 54 55
62 61 61 60 60 61 61 62 63 63 62 61 60 59 58 54 49 45 45 50 55 62 65 65 64 63 61 60 60 58 57 56 55 55 55 54 54 53 53 53 53 53 53
64 63 62 61 61 61 61 61 61 61 61 61 60 59 59 58 56 51 45 47 52 56 61 65 65 64 63 62 60 60 58 57 56 55 55 54 54 53 53 52 52 52 52
64 64 63 63 62 62 61 61 61 61 60 60 60 59 59 58 58 54 51 47 48 54 56 61 63 64 64 63 61 59 60 59 57 56 55 54 53 53 53 52 52 52 51
64 64 64 63 63 62 62 61 61 60 60 59 58 58 59 58 56 55 53 50 47 49 53 57 59 60 62 63 62 61 60 59 59 57 56 54 54 53 53 53 52 52 51
62 63 63 63 63 62 61 61 61 60 60 59 58 58 57 55 55 54 53 51 50 49 50 53 56 58 59 62 63 62 60 60 59 59 57 54 53 52 52 52 52 52 52
65 64 63 62 61 61 61 61 61 60 60 58 59 55 55 54 51 50 49 47 46 45 47 50 52 54 57 58 58 62 61 60 59 59 59 56 54 53 52 52 52 52 52
64 65 65 65 64 62 61 62 61 60 60 58 58 59 53 51 50 50 46 44 43 43 45 48 50 51 52 54 56 57 60 61 59 58 58 60 56 54 54 53 52 51 52
48 54 61 63 64 63 62 62 61 61 60 59 56 55 56 52 52 51 51 46 40 40 42 45 47 49 51 52 53 54 56 58 59 59 57 58 60 58 54 53 54 54 52
53 54 55 56 58 58 59 60 60 60 60 60 58 56 56 53 50 51 51 53 51 50 47 44 44 45 48 49 49 52 53 55 57 58 58 58 59 59 57 57 57 56 56
53 52 52 53 55 57 57 58 58 60 60 60 60 58 55 53 53 49 49 49 50 51 48 47 46 44 45 46 48 50 51 52 54 57 58 58 58 58 58 58 58 57 56
51 51 51 51 52 53 55 58 60 60 59 58 59 58 57 56 54 52 52 52 50 50 50 49 46 46 45 46 46 46 48 49 51 54 56 58 58 57 56 55 55 57 57
49 48 49 49 49 50 52 56 58 59 58 58 58 58 57 56 54 53 53 51 48 47 48 48 43 43 43 43 44 45 46 48 49 51 54 56 56 56 55 54 55 55 54
44 44 45 46 46 47 50 53 54 55 53 53 54 54 54 52 52 52 52 52 50 46 46 46 45 42 42 43 44 43 44 45 47 48 49 50 52 53 53 53 52 51 50
40 41 42 42 42 44 46 49 50 50 49 49 49 49 48 48 47 47 48 48 49 48 45 45 42 41 41 42 44 44 45 46 47 48 48 48 52 51 50 49 49 48 49
39 39 39 40 40 40 42 44 45 45 44 44 44 44 43 43 43 43 44 44 45 45 45 43 40 39 40 40 40 42 43 43 43 46 49 49 48 47 47 46 46 46 45
38 38 37 37 38 38 38 40 40 40 40 39 40 40 40 40 40 40 41 41 40 40 42 40 38 38 38 38 38 39 40 40 40 42 44 44 44 44 44 44 43 44 43
38 38 37 36 36 36 36 37 38 38 38 37 37 37 37 37 37 38 38 38 38 38 39 39 38 37 37 36 37 37 37 38 38 40 41 41 42 42 43 43 44 44 44
37 37 37 37 36 36 36 36 37 37 37 38 39 39 37 36 36 37 37 37 37 37 37 37 36 36 36 35 36 35 35 37 36 37 37 38 39 39 39 39 39 37 35
37 36 36 37 37 37 36 36 36 36 36 35 35 36 36 39 39 38 36 36 36 36 36 36 35 34 33 33 32 33 32 32 32 28 27 27 27 28 30 29 28 29 30
37 37 36 36 36 36 37 38 35 34 33 34 34 33 32 31 33 35 36 36 35 33 33 32 31 29 28 27 26 27 27 26 25 26 24 23 25 24 24 24 27 29 30
37 37 36 35 36 36 37 36 34 29 29 30 31 32 31 29 28 28 29 29 30 31 31 29 27 27 25 25 27 27 26 26 24 24 24 21 24 20 20 21 27 30 30
35 34 33 33 34 35 35 33 30 28 27 27 27 26 29 29 31 27 27 26 25 28 28 26 27 27 27 27 27 28 26 26 24 24 25 22 22 20 22 23 27 30 31
34 32 30 30 30 32 31 30 27 26 25 24 24 26 27 27 29 28 25 24 20 23 26 27 27 26 26 25 26 27 26 25 19 20 22 22 21 21 22 22 23 28 30
33 30 29 27 30 28 28 27 24 18 17 17 20 22 27 27 26 28 24 20 20 22 24 20 16 16 17 18 23 21 25 24 23 21 20 23 21 22 23 21 22 23 23

GFSMA_sfc_dewp_060.txt.gz
Dewpoint
63 61 58 55 56 58 59 59 60 59 58 57 57 54 53 51 49 48 46 57 60 65 68 66 63 62 60 59 57 56 56 54 54 55 55 55 54 55 55 56 56 56 56
63 62 61 59 56 57 58 60 61 61 60 60 58 57 57 57 55 51 48 50 60 63 66 67 65 64 62 61 59 58 57 56 55 55 55 54 54 54 54 54 54 54 55
63 62 61 60 60 59 59 60 60 61 61 60 60 59 59 58 58 55 52 51 53 60 63 66 66 64 62 61 61 60 59 57 56 55 55 55 54 53 53 53 53 54 53
63 63 62 62 62 61 61 61 61 60 60 60 60 60 59 60 59 59 58 55 54 52 59 64 66 65 64 63 62 61 60 59 57 57 56 55 55 54 53 53 53 53 52
62 63 63 62 63 62 62 62 62 61 61 60 60 60 60 60 60 59 59 58 57 54 53 58 63 64 65 64 63 62 61 61 59 58 57 55 55 54 54 53 52 52 52
63 63 63 63 63 63 62 62 62 62 62 61 59 59 60 60 60 59 58 58 58 56 54 54 54 56 62 64 64 63 62 61 61 59 58 57 56 54 54 53 53 52 52
63 63 63 63 64 63 63 62 62 62 61 61 60 59 60 59 59 58 57 57 56 55 55 53 53 53 54 63 63 63 62 61 61 61 59 58 57 56 54 53 53 53 52
64 64 64 64 64 64 63 63 63 62 62 62 60 60 57 53 54 55 55 54 53 52 51 51 51 51 52 53 56 62 63 62 61 60 61 60 58 56 55 54 53 53 53
65 65 65 65 66 65 64 64 64 63 62 63 61 60 57 50 53 53 54 51 50 49 49 49 50 50 50 51 54 56 60 61 62 61 60 60 61 58 56 55 54 53 54
48 50 57 62 64 64 63 63 63 63 62 60 60 59 60 57 55 53 54 53 48 47 49 48 47 49 49 50 52 54 56 57 58 60 61 60 59 61 59 57 55 54 54
52 53 53 54 55 57 58 59 59 59 61 61 60 58 58 58 56 55 52 54 55 52 51 50 49 48 48 49 49 51 52 52 54 56 59 60 60 60 61 59 57 54 54
52 52 52 53 55 56 57 57 57 58 58 58 60 60 57 55 55 54 53 53 52 53 52 51 50 49 48 47 47 48 49 50 51 53 56 57 58 59 60 59 58 58 57
50 52 51 52 52 53 54 56 57 57 58 59 58 59 59 58 56 53 53 52 52 52 50 50 47 47 45 47 47 46 47 49 50 52 55 56 57 57 58 59 58 58 57
49 49 49 49 50 50 51 54 55 58 59 60 59 59 58 58 56 55 54 53 51 50 50 48 46 44 44 44 45 46 47 47 47 49 51 51 52 52 54 57 57 55 56
44 45 46 46 47 48 50 52 54 55 55 55 54 54 53 51 53 54 54 53 52 48 48 49 48 44 45 45 45 45 46 46 47 47 48 48 48 50 52 54 54 53 52
43 43 44 44 44 46 48 50 51 50 51 51 51 50 49 49 49 50 51 51 50 50 47 47 45 43 42 43 43 44 44 45 46 47 50 50 49 51 51 50 50 49 49
41 41 42 42 42 43 45 47 47 46 46 46 46 46 45 46 46 46 48 47 47 48 46 43 42 42 42 42 42 42 43 43 44 45 46 47 47 48 48 48 47 47 47
40 40 39 40 40 41 42 43 43 43 43 43 42 43 42 42 43 43 44 44 44 44 45 44 41 42 41 40 40 40 40 40 41 41 43 44 44 44 44 44 43 43 43
40 39 38 38 38 39 40 40 40 40 40 39 39 39 39 40 40 41 41 41 41 40 42 41 40 40 39 38 38 38 38 38 38 37 39 40 41 41 41 41 42 42 43
39 39 39 38 37 37 38 39 39 39 39 39 39 39 38 38 38 39 39 39 39 40 40 39 38 38 37 36 36 35 36 37 35 33 32 32 34 35 37 37 37 35 35
38 38 37 38 37 37 37 38 38 38 37 37 37 37 38 39 38 38 37 38 38 38 38 38 37 36 35 33 33 33 32 31 31 28 27 27 27 28 29 29 29 28 29
37 37 37 37 36 37 39 38 37 36 36 35 35 35 34 34 35 36 35 35 33 35 35 35 35 32 31 29 27 27 26 25 26 27 23 21 23 22 23 24 25 29 30
38 37 37 37 36 37 37 37 35 34 35 35 35 35 31 28 30 30 29 29 31 31 31 28 25 25 24 25 28 29 27 26 23 22 22 19 19 17 19 18 25 29 31
37 36 36 37 36 35 36 33 31 33 33 32 32 33 34 33 31 27 26 26 26 27 28 25 27 27 28 28 28 29 26 25 23 21 23 21 20 20 22 23 25 30 31
35 35 34 34 36 35 32 29 31 33 30 29 28 27 26 28 30 27 24 24 19 23 27 27 26 26 26 26 26 26 27 24 19 16 21 22 21 21 21 22 24 26 27
34 33 34 34 32 35 30 28 25 19 19 16 19 23 27 27 27 29 24 19 17 20 23 21 17 15 16 18 23 19 23 26 23 24 21 24 23 23 26 22 22 23 24

GFSMA_sfc_dewp_063.txt.gz
Dewpoint
62 60 56 54 54 55 56 57 57 56 57 56 55 54 53 52 51 51 51 58 58 59 65 67 65 64 61 59 58 57 56 55 54 55 55 55 55 55 56 57 57 57 57
61 61 59 58 54 54 55 56 58 59 59 59 58 57 56 57 57 55 53 54 58 60 62 66 67 65 64 62 61 59 58 57 56 55 55 54 54 54 54 54 54 55 56
61 60 59 59 59 58 56 57 58 59 60 59 59 59 59 58 58 58 57 56 57 59 61 61 65 65 64 63 63 62 60 59 58 56 56 55 54 53 53 53 54 54 53
62 62 60 61 61 61 61 60 60 60 60 59 59 59 58 59 59 59 60 59 58 56 60 62 63 64 64 64 63 62 62 61 60 58 57 56 55 55 54 53 53 53 52
62 62 62 62 62 62 62 61 61 61 60 60 59 60 60 60 60 59 59 60 60 60 57 60 62 63 65 65 64 63 63 63 61 59 59 58 57 55 55 54 53 53 53
62 62 62 62 62 62 62 61 61 62 62 62 60 60 61 61 61 60 59 57 58 60 59 58 59 58 62 63 64 63 62 62 62 61 60 59 57 56 55 54 54 53 53
62 63 63 63 63 62 62 61 61 61 62 63 62 61 61 60 60 59 58 57 57 58 57 57 56 56 57 63 64 63 63 63 62 62 62 60 59 58 57 56 55 54 53
63 63 63 63 64 64 62 62 62 62 62 63 61 61 58 57 55 57 57 56 56 56 55 54 54 54 55 55 58 62 62 63 62 62 61 62 61 59 58 57 56 55 54
64 65 66 66 66 66 65 65 65 64 62 62 62 61 57 53 54 56 56 56 54 54 53 53 52 53 53 54 55 55 58 58 60 62 62 61 61 61 61 59 57 55 54
53 54 58 62 64 65 64 64 64 64 63 61 61 61 61 59 56 53 55 56 55 51 52 53 51 51 50 52 53 53 54 54 55 57 59 60 60 60 61 61 59 57 55
50 52 51 53 55 56 57 58 59 59 60 60 60 59 59 59 58 56 53 54 56 55 53 53 52 51 50 51 51 50 50 51 53 54 56 57 58 59 59 62 62 59 56
50 52 52 52 53 54 55 57 58 58 57 56 57 57 57 56 55 54 54 54 54 54 52 53 51 50 49 49 47 49 48 50 51 53 55 56 57 59 60 59 61 60 58
49 51 52 51 51 52 53 54 56 57 55 56 56 57 57 57 57 55 53 52 52 53 52 51 48 48 46 48 46 48 49 49 50 52 53 55 54 54 55 56 58 59 61
48 50 49 49 49 49 50 51 54 56 57 58 59 59 59 58 58 55 54 53 50 51 51 49 47 46 46 45 46 48 48 47 48 50 51 51 50 50 51 54 55 57 55
47 45 46 47 47 47 48 49 52 53 55 55 54 53 52 51 51 53 54 54 52 48 49 49 47 46 45 46 44 45 45 46 47 48 49 50 49 49 51 53 55 54 53
44 44 44 45 45 46 47 49 50 51 51 51 52 51 50 50 50 51 51 51 51 51 48 48 45 44 44 43 43 44 43 45 45 47 48 48 50 52 52 52 51 51 51
42 42 42 43 43 43 44 47 48 47 47 47 47 47 46 47 48 48 49 49 49 49 47 44 44 43 43 42 41 41 42 41 43 44 45 46 46 47 48 48 48 48 48
41 41 40 40 41 41 42 43 44 45 45 44 44 45 44 43 44 45 46 45 45 45 45 44 42 42 41 40 40 39 39 39 41 40 42 43 44 44 45 45 44 44 43
41 40 39 39 39 39 40 41 41 41 41 41 41 40 40 41 42 42 43 43 42 41 42 42 40 41 40 38 37 38 38 38 38 36 36 38 39 41 42 42 42 41 42
40 40 39 38 38 38 39 40 40 40 40 40 39 39 38 39 39 40 40 40 40 40 40 40 39 39 37 37 37 35 37 37 36 31 32 31 32 34 36 37 36 35 35
39 39 38 38 38 38 38 39 39 39 39 38 37 37 39 39 39 38 38 38 37 38 38 38 38 38 35 34 33 34 32 31 32 30 28 29 27 29 30 28 29 28 31
38 38 38 37 37 37 39 39 38 38 37 36 35 35 35 36 35 35 35 35 33 34 35 35 34 33 33 30 28 28 28 28 28 28 24 23 24 24 24 23 25 27 29
38 38 37 37 37 36 39 38 37 37 36 36 35 36 32 28 31 30 29 28 32 31 30 30 27 26 25 27 30 30 28 28 26 26 24 22 22 20 23 21 27 29 31
38 38 38 38 37 36 36 35 34 35 33 33 33 33 34 34 31 28 27 27 27 28 29 26 29 28 29 29 28 28 27 27 26 25 23 24 22 22 24 25 27 30 31
36 36 37 37 37 36 33 30 31 33 31 30 30 28 27 29 30 27 26 26 21 25 28 26 25 25 25 25 26 27 28 27 24 17 22 23 24 23 24 23 26 28 27
35 35 34 35 34 36 30 28 28 24 24 20 22 25 27 28 27 29 27 21 19 21 24 24 21 20 19 19 22 22 26 24 26 26 23 25 25 24 25 25 23 25 25

GFSMA_sfc_dewp_066.txt.gz
Dewpoint
61 60 56 55 57 58 57 58 58 57 57 56 55 54 53 52 51 51 51 59 59 59 61 67 66 65 62 60 58 57 56 56 55 55 55 55 55 55 56 57 57 57 57
62 61 59 56 54 55 56 56 56 59 59 59 58 57 56 56 56 56 54 54 59 59 60 61 67 67 65 63 62 60 59 58 57 55 55 55 54 54 54 54 55 56 56
61 60 60 60 59 57 55 56 58 59 60 60 59 59 59 58 58 58 56 55 56 60 61 60 61 64 64 65 63 63 61 60 59 58 57 56 55 54 53 54 54 54 53
61 61 60 60 61 60 60 60 60 60 60 60 59 59 59 59 59 59 59 59 57 56 59 62 63 62 63 64 64 63 63 62 61 59 58 57 57 56 54 54 54 54 53
62 62 62 62 62 62 61 61 61 61 60 60 59 59 60 60 60 60 60 59 60 59 58 61 61 62 64 64 63 63 63 63 63 61 60 59 57 57 56 55 54 54 54
62 62 62 62 62 62 61 61 61 61 61 61 61 59 61 61 61 60 60 59 58 58 59 57 59 59 62 63 62 62 62 63 63 63 61 60 59 58 57 56 55 55 55
62 62 63 63 61 62 61 61 60 60 61 61 62 60 61 61 60 60 60 58 56 56 56 56 56 56 56 62 63 62 62 62 62 62 63 62 61 59 59 58 57 55 55
64 63 63 63 63 63 63 62 63 62 61 62 60 60 57 56 57 57 58 55 54 53 54 52 52 52 52 53 56 62 62 62 62 62 62 62 62 62 60 60 58 57 56
64 65 65 65 65 66 65 65 64 63 62 62 62 60 56 53 54 54 54 54 53 52 51 50 50 50 51 52 53 53 55 55 56 58 60 61 61 61 62 62 61 58 57
53 53 55 60 64 64 64 62 62 62 62 61 61 61 60 59 55 52 53 54 53 50 52 49 49 49 49 50 52 52 52 52 54 55 56 57 58 59 60 60 62 60 58
50 52 51 52 53 54 55 56 57 57 58 57 57 57 56 58 58 56 52 52 55 53 52 52 51 49 48 47 46 49 51 52 54 55 57 57 57 59 60 60 60 61 60
52 52 52 52 53 53 54 55 56 56 56 55 55 55 55 55 55 54 53 52 51 53 53 52 49 48 48 46 47 50 50 51 52 54 55 56 57 57 57 57 59 59 60
49 52 52 51 51 51 52 52 53 55 55 54 55 55 56 55 56 55 54 52 51 53 52 48 47 47 45 46 46 49 49 49 51 52 54 54 53 52 53 54 56 57 58
49 49 49 49 48 48 49 50 52 53 54 55 54 54 56 56 55 54 53 52 50 50 50 48 46 46 45 45 45 48 46 48 48 49 51 52 51 50 50 53 53 54 55
45 44 46 46 46 46 47 48 50 51 53 53 53 53 52 51 52 53 54 54 52 48 48 48 44 43 44 44 44 44 44 45 46 47 47 49 51 49 52 53 54 53 54
44 44 44 44 44 45 46 47 49 50 50 50 51 50 50 50 50 51 51 51 51 50 48 47 43 42 43 43 43 43 42 44 45 46 47 48 49 50 51 52 52 52 52
42 42 42 42 42 42 43 45 47 47 48 47 47 47 46 47 48 47 47 47 46 48 47 43 43 42 41 40 40 41 41 41 43 43 44 46 46 47 47 47 48 49 49
41 41 40 40 40 41 41 42 43 43 45 45 45 45 44 45 44 44 44 42 42 41 41 43 41 41 40 37 37 38 38 39 39 39 41 43 43 44 45 45 46 45 44
41 40 39 39 39 39 40 40 40 41 40 40 40 39 39 41 39 40 40 41 39 41 40 40 38 39 38 36 36 37 37 35 38 35 35 36 38 39 42 43 42 41 41
40 40 39 39 38 38 39 39 40 39 39 39 39 38 38 38 40 39 40 39 39 39 39 39 38 37 37 35 36 34 32 34 32 29 30 31 31 33 35 35 36 35 35
39 39 38 39 39 38 38 39 40 40 39 38 38 38 39 39 39 39 38 37 37 36 36 36 36 36 35 34 31 31 28 27 28 27 25 24 25 25 28 30 31 31 31
38 38 38 38 38 37 39 40 39 38 38 36 35 34 35 35 35 36 36 34 34 34 33 34 34 32 30 27 27 25 25 22 22 25 22 21 22 20 21 20 24 29 30
38 38 38 38 37 38 40 39 39 37 36 35 34 31 30 30 30 28 28 31 31 30 32 28 24 24 25 26 26 25 25 23 24 24 22 20 21 20 23 23 29 28 31
38 38 38 37 37 37 38 37 37 34 33 32 32 31 29 28 28 27 26 26 26 29 29 28 28 27 27 27 27 26 25 24 25 24 22 18 21 21 23 24 28 29 29
37 37 37 37 36 36 35 34 31 29 29 29 29 29 30 31 30 27 26 23 20 26 28 26 24 24 25 24 24 25 22 20 20 18 22 22 23 23 23 24 26 27 28
35 35 34 34 36 33 33 30 29 28 27 25 24 27 27 29 28 29 27 19 18 20 23 22 21 20 19 18 20 21 21 14 18 18 23 21 24 24 19 26 25 25 25

GFSMA_sfc_dewp_069.txt.gz
Dewpoint
57 58 59 60 61 62 61 61 61 59 59 57 56 54 52 51 51 50 51 60 60 61 59 64 66 66 64 61 60 59 58 56 55 56 55 55 55 56 57 57 57 57 56
61 61 58 55 55 57 56 56 57 57 58 58 58 57 56 54 55 55 54 53 61 60 61 59 63 66 66 64 62 61 60 59 58 57 56 56 55 54 54 55 55 56 56
61 61 60 58 57 55 54 55 56 58 59 59 59 59 59 59 57 57 57 55 56 60 61 60 60 62 64 65 65 64 62 61 60 59 57 57 56 54 54 54 55 55 55
61 60 60 60 60 59 57 58 58 58 59 59 59 59 59 59 59 59 59 58 56 55 59 62 63 62 63 63 64 64 64 63 62 60 59 58 57 56 55 54 54 55 55
61 61 61 61 61 61 61 60 60 60 60 60 60 60 60 60 60 60 60 60 60 60 57 60 61 62 63 62 62 63 63 63 63 63 61 60 58 58 57 55 55 55 54
62 62 62 62 62 62 62 61 61 61 61 61 61 61 61 61 61 61 60 60 60 58 59 57 58 58 61 62 62 62 62 62 63 62 63 62 60 59 58 58 56 55 55
62 62 62 62 62 61 60 60 61 60 60 61 61 59 60 60 61 61 60 60 58 56 56 56 56 56 56 60 62 62 62 61 62 62 62 62 62 61 60 60 58 57 56
63 63 63 63 63 62 62 62 62 62 62 62 60 59 56 56 57 57 57 57 54 53 53 52 51 51 52 54 57 58 59 60 60 60 61 62 62 63 62 61 60 59 57
65 65 65 65 65 65 64 64 64 63 61 61 61 58 55 53 54 54 54 54 53 52 50 50 49 50 50 52 53 52 53 54 55 56 57 57 58 60 61 62 63 62 59
54 53 55 59 63 64 62 61 61 60 59 59 58 60 59 57 55 52 53 54 53 50 50 49 49 49 50 49 50 53 53 54 55 56 57 57 57 58 59 60 60 62 61
51 52 52 53 53 54 54 56 56 56 57 56 55 54 54 55 55 53 50 52 53 53 52 51 49 48 47 46 48 52 52 53 54 55 56 56 56 58 57 58 58 60 60
52 52 52 52 52 53 54 54 55 55 55 55 54 53 52 52 52 52 52 51 51 53 53 50 48 48 46 47 49 51 50 51 53 54 55 55 54 55 55 56 57 57 58
51 51 51 51 51 51 51 51 52 52 53 54 53 53 54 54 54 53 52 51 52 53 51 49 47 46 45 45 48 48 49 49 51 52 53 54 53 53 52 52 54 55 56
50 50 49 49 48 48 48 49 50 51 52 53 52 53 54 54 56 55 54 51 49 50 51 47 46 45 45 44 47 46 46 47 47 48 49 50 52 50 50 52 53 54 55
46 46 46 46 46 46 47 47 48 50 50 51 52 50 52 52 51 53 54 54 53 48 49 46 44 44 44 44 45 44 44 45 47 47 47 49 51 53 54 54 54 54 55
44 44 44 44 44 44 45 46 47 48 48 49 49 50 50 50 50 50 51 51 52 51 48 46 43 44 44 42 43 42 43 43 45 45 46 47 48 49 51 52 53 53 53
43 43 43 42 42 42 43 43 45 46 46 46 46 47 47 48 48 47 47 47 47 47 47 43 43 42 40 40 40 41 41 41 43 42 43 45 45 47 48 48 48 48 49
42 41 41 41 41 41 41 41 43 43 45 46 45 46 44 45 44 44 44 43 41 40 43 42 42 41 39 38 36 38 39 39 39 38 39 41 42 43 44 45 45 46 46
41 40 40 39 39 40 40 40 41 41 40 40 40 40 41 41 40 39 40 41 41 40 37 37 38 39 38 37 37 37 37 35 37 35 34 35 36 39 40 42 41 41 41
40 40 39 39 38 38 39 39 40 39 39 39 38 38 38 38 38 39 40 40 40 39 39 38 38 37 36 36 36 31 31 31 30 27 28 31 32 34 33 36 35 35 35
39 39 39 39 39 38 38 39 40 40 39 39 39 38 38 39 40 39 38 38 38 37 36 36 36 36 36 34 30 30 27 26 27 25 23 22 23 24 27 32 31 29 30
38 38 38 38 38 37 39 40 40 39 38 37 36 35 36 36 37 37 36 36 35 35 35 34 32 31 29 27 27 25 24 22 22 25 21 20 22 19 20 20 25 28 29
36 36 37 38 38 39 40 40 40 38 37 35 33 31 30 32 30 28 31 31 30 33 33 30 25 24 25 26 26 25 25 22 23 24 21 17 21 20 23 23 28 28 31
35 35 37 38 37 38 40 39 39 35 34 33 32 28 27 27 27 27 26 27 28 28 28 27 27 27 27 27 27 27 25 24 24 23 21 18 21 22 23 23 29 28 28
35 37 38 37 36 37 37 37 34 31 28 27 29 30 31 28 28 27 25 24 23 27 27 27 27 26 26 25 26 24 23 20 20 18 23 21 23 24 24 25 24 29 28
36 36 34 35 37 35 36 33 30 27 25 25 27 27 31 31 32 29 25 20 18 21 23 22 20 20 19 19 22 22 22 13 16 17 22 20 23 23 18 24 26 25 25

GFSMA_sfc_dewp_072.txt.gz
Dewpoint
61 61 61 61 61 62 61 61 61 60 60 59 56 54 52 51 50 50 50 59 61 62 60 62 65 66 65 63 61 59 59 57 56 56 55 55 55 56 57 57 57 56 56
57 58 57 60 60 60 61 59 60 59 57 57 57 56 55 55 54 54 54 52 61 61 62 60 61 64 65 65 64 62 61 60 59 57 57 56 55 55 55 55 55 56 56
60 60 59 55 55 55 57 56 55 57 59 59 59 59 59 59 58 57 57 55 55 61 62 61 62 62 63 64 65 64 64 62 61 60 58 58 56 55 54 55 55 55 56
61 61 60 59 58 57 55 55 57 58 58 59 59 59 59 59 59 59 59 58 56 55 58 63 64 64 63 63 63 64 63 64 63 62 60 59 58 57 56 55 56 55 55
61 61 60 60 60 60 59 58 59 59 59 59 60 60 60 60 60 60 60 60 60 59 58 59 62 63 63 62 62 62 62 63 63 63 63 61 60 59 58 56 56 56 56
61 61 62 61 61 61 61 61 61 61 61 60 60 60 60 60 61 60 60 60 60 60 59 58 58 58 61 62 61 61 62 62 62 62 62 63 62 60 60 59 57 56 56
62 61 62 62 62 62 61 61 60 60 61 61 60 59 59 60 60 60 60 60 60 58 57 57 56 56 55 60 60 61 61 62 62 61 62 62 63 63 61 61 59 58 57
63 62 62 62 62 62 61 61 62 61 61 61 58 57 54 55 56 57 56 57 56 54 54 53 52 52 53 55 56 57 57 57 58 58 58 58 60 62 63 62 61 60 59
64 63 63 63 64 65 63 64 63 63 61 60 60 58 54 52 53 55 54 54 53 52 51 51 50 51 51 52 52 53 54 55 56 57 57 57 57 57 58 60 62 63 61
63 64 64 64 64 64 62 61 61 60 59 57 58 58 57 56 55 52 53 54 53 50 49 50 49 50 49 49 52 54 55 56 56 56 57 56 56 58 59 59 59 60 61
57 56 55 53 54 55 55 55 55 55 56 56 56 54 53 53 54 53 51 51 52 53 52 51 49 47 46 47 50 52 53 54 54 55 55 55 55 57 57 58 57 57 59
56 57 56 55 54 54 53 54 54 53 53 54 54 53 52 51 50 50 50 50 50 51 52 49 48 46 46 49 50 51 52 52 53 53 54 54 54 54 54 54 55 56 56
54 55 53 51 51 52 52 52 51 51 51 52 52 52 52 52 52 52 51 49 49 51 49 47 46 46 45 47 48 49 49 49 50 51 52 52 53 52 52 52 53 54 55
53 53 51 50 49 49 49 49 49 50 50 51 51 51 52 53 53 53 52 52 50 50 49 46 45 46 45 46 47 46 46 47 47 48 48 49 52 53 52 51 53 53 55
49 49 49 48 47 47 46 47 48 48 49 50 51 51 52 50 50 52 53 53 53 48 49 46 44 44 44 45 45 44 44 46 46 47 47 48 49 52 53 54 54 54 54
45 45 45 45 45 45 45 46 46 47 47 48 49 48 47 48 48 50 51 52 52 52 48 46 44 44 44 43 43 43 43 44 44 45 46 46 48 49 50 51 51 52 52
44 44 44 43 43 43 43 43 44 46 46 46 45 45 46 47 48 47 48 48 47 47 48 43 43 42 40 40 40 41 41 41 42 42 44 44 44 46 48 48 48 48 48
42 42 42 41 41 41 41 41 42 45 44 44 45 44 44 45 44 44 45 44 42 42 44 42 42 40 39 38 38 39 39 39 39 38 39 41 41 42 44 45 45 46 46
41 40 40 40 40 40 40 40 40 41 40 40 41 42 41 43 41 41 42 42 41 40 40 40 38 39 38 37 37 37 37 35 36 33 34 34 36 38 39 40 41 41 41
40 40 39 39 39 39 39 39 39 38 38 38 38 38 39 40 40 40 40 40 40 40 40 38 38 37 37 36 36 32 34 30 29 25 27 30 33 35 34 35 36 35 35
40 39 39 38 38 38 38 38 39 39 39 39 39 38 38 39 40 40 39 38 39 38 37 37 36 36 36 34 30 31 28 26 26 24 23 22 22 22 29 32 30 29 29
38 38 37 38 38 38 40 40 40 40 39 38 37 36 37 37 38 38 37 37 36 36 35 36 34 33 30 29 27 25 25 23 23 25 21 19 21 19 20 19 26 28 30
36 36 36 37 37 38 40 41 41 39 38 37 35 34 33 33 31 28 33 32 33 35 33 33 30 28 26 26 26 26 25 23 23 24 22 16 22 21 23 23 29 29 31
35 34 35 36 36 38 41 40 40 36 34 34 33 31 26 26 28 27 27 28 27 28 28 27 27 27 27 27 27 26 25 24 24 23 21 18 22 22 23 24 30 28 29
34 34 35 35 37 37 40 40 37 34 33 33 31 28 27 26 29 28 26 26 25 27 28 30 30 30 31 30 27 26 24 22 20 19 23 21 22 23 24 25 24 30 30
35 36 34 35 37 36 38 38 35 31 29 27 29 29 34 30 31 29 25 21 20 23 25 23 22 20 19 20 23 22 24 19 21 20 22 21 22 22 17 23 25 25 25

GFSMA_sfc_dewp_075.txt.gz
Dewpoint
62 62 62 61 61 61 60 59 59 59 59 59 58 54 53 51 50 50 50 56 62 62 60 60 65 66 65 64 62 61 59 58 57 56 55 55 55 56 57 57 57 56 56
62 62 61 60 60 60 61 60 60 60 59 57 58 57 56 55 55 53 54 54 59 62 63 60 62 64 65 65 65 63 62 61 60 58 57 56 55 55 55 55 56 56 56
59 59 58 57 59 59 60 60 56 57 57 59 59 59 59 59 59 58 57 56 56 60 62 61 62 62 63 63 64 64 64 63 62 61 60 59 58 56 55 55 56 56 56
58 59 60 57 56 55 55 55 55 57 58 58 58 59 59 59 59 59 59 58 57 56 58 61 63 65 64 63 63 63 63 63 63 63 62 60 60 58 57 56 56 57 56
60 61 60 60 59 58 56 55 57 58 58 59 59 60 60 60 60 60 60 60 60 59 58 59 61 62 64 63 62 62 61 62 62 63 63 63 61 60 59 58 56 56 56
61 61 61 60 60 60 60 59 59 60 60 60 60 60 60 60 60 60 60 60 60 60 60 60 58 59 61 61 61 61 61 61 62 61 61 62 63 62 61 60 58 57 57
62 61 61 61 61 60 60 61 61 60 60 61 61 59 58 59 59 59 59 59 59 59 59 58 57 57 57 61 60 60 60 61 59 59 59 60 61 62 63 62 61 59 58
62 61 61 61 62 62 61 61 61 61 61 61 59 56 54 54 56 55 55 56 56 54 55 55 55 54 54 55 56 57 57 56 57 57 57 58 58 59 60 62 62 61 60
63 62 62 62 62 63 62 62 63 62 60 59 61 58 54 51 53 55 54 54 53 52 51 51 51 52 52 52 52 54 56 57 57 57 57 56 57 58 58 59 60 61 63
63 63 63 64 64 64 63 63 62 62 60 57 56 57 56 57 55 51 53 53 53 50 49 50 49 50 49 50 53 55 56 56 56 56 56 55 56 58 58 59 58 58 59
61 61 61 60 60 60 59 59 59 58 57 56 55 53 52 51 53 54 50 50 52 53 52 50 49 47 47 50 51 53 55 54 55 55 54 54 54 54 56 56 57 57 57
59 59 58 57 56 56 56 56 55 53 52 52 53 52 52 50 48 48 49 48 49 50 50 48 47 46 48 50 51 52 53 53 53 53 54 53 54 54 54 54 54 54 55
56 56 56 55 53 52 53 53 52 51 51 51 51 52 52 51 51 50 49 48 48 49 47 46 46 45 46 48 49 49 50 50 50 51 52 52 51 52 54 51 52 53 54
55 54 53 51 50 50 50 49 49 49 49 49 49 50 51 51 51 52 52 49 49 49 49 44 44 45 46 47 47 47 47 48 48 48 48 48 51 52 55 51 53 53 53
53 52 50 48 48 47 47 47 47 47 47 48 49 49 50 50 50 51 51 52 51 47 48 46 43 44 45 45 45 45 45 46 46 47 47 49 49 50 52 54 54 55 55
50 49 47 46 46 45 45 45 45 46 48 48 48 47 46 47 47 49 49 51 52 51 48 46 44 44 44 44 44 43 43 44 44 45 45 46 47 49 49 50 51 51 52
45 45 45 44 44 43 43 43 43 44 45 45 45 45 45 46 46 46 47 48 48 47 48 42 43 43 42 42 41 42 41 41 41 42 43 44 43 45 47 48 49 49 49
44 43 43 42 42 41 41 41 41 43 44 44 44 44 44 45 44 43 45 44 44 43 45 42 41 41 39 39 39 39 40 38 38 38 40 40 41 43 45 45 45 46 46
42 41 41 41 40 40 40 40 40 41 40 40 40 42 41 42 42 42 42 42 42 41 41 41 38 39 38 38 38 37 37 35 33 32 34 35 37 37 40 40 40 41 41
40 40 40 39 39 39 38 38 38 38 37 37 37 37 39 40 40 40 41 41 40 40 40 40 38 37 37 36 37 33 35 31 29 24 27 30 32 36 36 35 34 33 34
40 39 38 38 38 38 38 37 38 37 38 39 39 38 39 40 40 40 39 39 39 39 38 37 36 36 36 35 32 31 30 27 26 25 23 22 22 22 28 31 29 30 31
38 38 37 37 37 38 40 41 40 40 40 39 38 38 38 39 39 39 38 37 37 37 36 36 35 34 33 31 28 27 26 24 23 25 21 19 21 19 20 20 28 29 32
36 36 36 36 36 36 39 41 41 40 39 38 37 35 34 35 32 31 33 34 35 36 35 34 33 29 28 28 27 25 25 25 22 24 22 16 22 21 23 23 30 29 31
35 34 34 35 35 36 40 41 41 36 35 34 34 33 33 30 27 28 27 27 27 27 27 26 27 26 27 27 27 27 26 24 24 23 21 18 22 22 23 24 31 28 29
34 34 34 34 34 34 39 41 38 34 34 34 32 30 28 25 27 29 26 27 26 28 31 32 32 32 32 31 29 27 25 23 21 19 22 20 22 23 24 25 24 31 31
34 33 34 34 36 35 39 40 38 34 33 32 30 29 31 27 30 29 24 23 24 25 25 23 22 22 19 21 28 23 25 19 21 20 23 22 23 22 19 22 25 25 25

GFSMA_sfc_dewp_078.txt.gz
Dewpoint
61 62 61 61 60 60 60 58 58 58 58 58 58 56 55 54 51 50 50 56 57 61 60 60 63 66 65 65 63 62 60 59 58 57 56 55 55 56 57 57 57 56 56
62 62 61 60 60 60 60 59 59 59 59 58 57 58 57 56 55 55 54 54 59 60 62 61 61 63 65 65 65 65 63 62 61 60 59 57 56 55 55 56 56 56 56
61 62 61 60 60 59 59 59 58 57 58 58 58 59 59 59 59 59 58 57 57 59 61 61 61 62 63 63 64 64 64 64 64 63 61 60 59 57 56 55 56 56 56
59 60 60 58 57 59 58 58 58 55 57 58 58 58 59 59 59 59 59 59 58 57 59 62 63 63 64 63 63 63 63 64 63 64 64 62 61 60 58 57 56 57 56
58 58 59 59 57 56 55 54 55 56 57 58 58 59 60 60 59 60 59 60 60 60 59 60 61 62 63 64 62 62 61 62 62 62 63 63 63 62 61 59 57 57 57
59 59 60 60 59 58 57 57 56 58 59 59 60 60 60 60 60 59 59 60 59 60 60 60 60 59 61 63 61 61 60 61 62 62 61 61 62 63 63 62 60 58 57
61 60 61 60 60 60 60 59 59 59 60 61 61 58 56 57 58 58 58 58 58 59 58 58 58 57 59 61 60 60 60 59 59 58 58 59 59 60 62 62 62 61 59
63 62 61 61 61 60 60 61 61 61 61 61 59 56 53 54 55 55 54 55 54 54 55 55 55 55 55 56 57 58 57 57 57 57 57 57 58 58 59 59 61 62 61
63 63 62 62 62 62 62 62 62 61 60 60 60 56 52 50 52 55 53 54 53 52 51 51 52 53 53 52 52 55 58 57 57 56 56 55 56 58 59 59 60 60 60
63 63 63 63 63 64 63 62 62 62 61 59 57 57 57 57 54 50 53 53 53 50 50 50 50 50 50 52 54 55 57 57 56 55 55 55 55 56 56 57 57 58 57
61 61 62 62 62 61 60 60 59 58 58 57 56 54 52 51 53 53 48 48 51 51 51 49 49 47 49 50 51 54 55 55 55 54 54 54 54 54 55 55 55 56 55
60 60 60 61 61 59 58 57 57 56 55 54 53 52 52 49 47 47 49 48 47 49 49 48 47 46 48 49 52 53 54 53 53 53 53 53 52 53 54 54 54 53 54
57 58 58 58 57 54 54 53 53 52 52 52 52 51 51 51 51 49 49 48 47 48 47 45 46 45 47 48 49 50 51 51 51 51 51 51 51 51 54 52 51 52 52
58 57 56 54 52 51 51 50 50 50 49 49 49 49 50 50 50 50 52 50 47 49 49 47 45 45 47 47 48 48 48 48 48 49 49 49 49 50 53 53 53 53 53
56 55 53 50 50 49 48 48 47 47 47 47 47 48 49 50 50 49 50 51 49 45 46 45 45 44 46 45 46 45 46 47 47 47 46 48 48 48 51 52 53 53 54
52 50 49 48 47 47 46 46 45 46 46 47 48 48 47 47 47 47 49 50 50 48 45 46 44 44 45 44 45 43 44 45 44 44 45 45 46 47 49 50 51 51 52
50 48 47 45 45 44 44 44 44 44 44 45 44 44 45 45 45 46 48 47 47 48 47 43 43 43 43 43 42 42 42 41 41 42 43 43 43 44 46 47 48 49 49
45 45 44 43 43 42 42 41 41 41 43 43 43 43 43 45 43 43 43 43 44 44 45 43 41 41 40 40 40 40 40 38 37 37 40 40 41 44 44 43 44 45 46
43 43 42 41 41 41 40 39 39 39 39 39 39 40 41 41 40 41 42 43 42 41 42 42 39 39 38 38 38 38 37 36 30 32 35 37 38 38 41 40 39 39 40
41 40 40 40 39 39 38 38 38 37 37 37 37 37 38 41 41 41 41 41 41 40 41 40 39 38 37 37 37 35 35 32 29 24 27 30 32 36 36 36 33 32 33
40 39 38 38 38 37 38 37 37 37 37 38 39 38 39 40 41 41 40 40 40 39 38 37 37 37 36 35 34 33 33 28 26 25 24 22 23 22 28 27 29 31 32
38 37 37 37 37 38 40 41 40 37 38 40 39 38 40 40 40 40 39 38 38 38 37 36 36 36 35 34 31 30 27 23 24 26 22 19 21 20 21 24 29 30 33
36 36 36 36 36 36 40 41 41 38 37 38 37 36 36 36 33 33 35 35 36 36 36 35 35 33 32 30 28 25 25 25 23 25 23 18 22 20 23 23 30 30 31
35 35 35 35 35 36 40 41 40 37 34 34 35 35 34 32 31 30 27 27 26 28 27 26 29 28 28 28 28 27 26 25 24 23 21 20 21 21 24 24 31 29 29
34 34 34 34 34 34 40 40 39 34 34 34 33 33 32 30 31 31 26 26 26 27 32 32 33 32 32 31 29 26 26 23 22 20 22 20 22 22 23 25 25 32 31
34 33 34 34 35 32 38 40 39 35 34 34 33 30 34 26 27 31 24 24 24 25 25 23 22 21 22 26 30 24 27 24 23 22 22 23 23 22 21 23 25 25 25

GFSMA_sfc_dewp_081.txt.gz
Dewpoint
63 63 62 63 63 63 61 60 59 58 58 58 59 58 57 56 55 54 54 57 57 59 61 61 60 65 66 65 64 63 62 61 59 58 57 56 55 56 57 57 57 56 57
63 63 63 63 63 62 61 60 58 60 60 60 59 58 58 58 57 57 58 58 59 60 62 62 61 62 64 65 65 65 65 63 63 61 61 59 57 56 55 55 56 56 56
63 63 63 63 62 61 60 61 60 60 60 60 58 58 60 60 60 60 60 60 60 60 61 62 62 62 63 64 64 63 64 65 64 64 63 62 60 59 57 56 56 56 56
63 63 62 63 62 60 60 61 60 59 57 57 58 59 59 60 60 60 60 60 61 60 61 62 63 63 64 64 64 63 62 63 64 63 64 64 62 61 60 58 57 57 57
63 61 61 61 60 58 59 59 58 58 56 57 58 59 60 60 60 59 60 60 60 61 61 61 61 62 63 63 63 63 61 61 62 62 62 63 63 63 62 61 59 58 57
60 60 60 60 59 58 57 56 55 56 58 59 59 59 61 61 61 60 59 59 60 60 61 62 62 61 61 62 63 60 60 61 62 61 61 60 61 62 63 63 62 60 59
60 59 59 59 60 59 57 57 57 57 59 61 62 59 59 58 58 58 58 58 57 58 59 60 60 60 59 62 61 60 61 60 59 58 58 58 58 59 59 60 61 63 61
64 63 62 61 61 61 60 60 60 61 61 62 60 59 55 55 56 56 56 55 55 56 57 56 58 58 59 59 59 60 58 57 57 58 57 57 56 58 59 60 61 61 62
65 64 64 64 63 63 62 62 63 62 61 61 61 59 54 52 54 56 56 55 55 54 53 54 54 55 55 54 54 56 58 58 56 56 56 54 56 57 57 58 59 59 60
64 64 64 63 63 63 63 63 64 63 62 61 60 60 60 59 54 52 54 54 54 53 52 52 52 52 52 53 54 55 57 58 56 55 55 55 55 55 55 55 56 57 57
63 63 64 63 62 62 61 61 61 61 61 60 60 58 58 57 56 54 48 50 53 53 53 51 51 50 51 52 53 54 56 56 55 54 54 54 54 54 54 55 55 55 55
61 62 63 62 61 61 60 60 58 58 58 58 57 56 55 52 51 52 51 50 50 51 51 51 49 49 50 50 52 54 54 55 54 53 53 53 52 52 53 55 55 55 53
60 61 61 62 61 60 60 58 57 56 55 54 54 53 54 54 54 52 51 50 50 50 51 49 48 48 49 50 51 51 52 52 52 52 53 52 51 51 54 54 51 52 52
60 60 60 59 57 57 56 55 54 53 53 53 52 52 52 52 53 53 51 49 47 49 48 49 48 47 48 49 49 49 49 49 50 50 50 50 49 50 52 55 55 54 55
58 59 59 57 55 53 51 50 50 49 50 50 50 50 50 51 52 53 53 53 49 44 44 48 47 46 48 48 47 46 48 48 48 47 47 47 48 49 49 51 52 53 54
56 55 52 50 49 48 48 48 47 47 47 49 49 50 50 51 51 51 51 51 51 48 45 49 46 46 46 45 46 44 45 45 45 46 46 45 46 47 49 50 50 51 51
52 51 50 48 47 46 46 46 46 46 46 47 47 48 48 48 48 49 50 50 50 50 46 46 45 45 44 44 43 43 43 42 43 43 43 43 44 45 46 47 48 48 49
50 50 48 46 45 44 43 43 43 43 44 45 45 45 45 45 47 47 48 47 46 47 47 46 43 42 41 42 42 41 41 39 38 39 41 40 42 43 43 43 44 45 45
46 45 44 43 42 42 41 41 41 41 41 41 41 42 44 44 44 44 44 45 45 43 44 45 42 42 41 40 39 39 38 37 30 35 36 39 39 40 41 39 38 39 40
43 42 42 41 41 40 40 40 40 39 39 39 40 40 40 42 42 43 42 43 43 42 42 42 41 40 39 38 39 37 36 35 31 25 28 30 32 37 37 34 33 33 34
41 41 40 40 40 39 39 39 39 39 39 39 39 39 40 40 41 41 41 41 41 41 41 40 39 39 37 36 36 35 35 32 28 28 27 25 24 24 31 28 30 32 34
40 40 39 39 39 38 41 41 40 39 39 39 40 39 40 41 41 41 40 40 39 39 39 39 39 37 37 36 33 33 31 30 33 28 25 23 22 21 22 28 30 31 32
39 39 39 39 38 39 42 43 43 40 40 40 40 40 38 37 36 37 38 37 37 35 37 37 37 36 34 33 32 30 29 30 26 26 24 21 22 20 23 23 31 30 31
39 39 38 38 39 38 41 42 42 41 39 37 37 37 37 35 33 33 30 29 28 29 28 28 33 32 32 32 32 32 30 28 26 24 23 23 21 21 24 25 31 30 30
38 38 37 37 38 38 41 42 40 37 37 36 37 36 35 33 34 34 28 27 27 29 32 33 32 31 32 31 29 28 28 28 24 21 23 20 21 22 23 25 28 33 31
37 37 37 37 37 37 40 41 40 37 35 35 34 33 36 32 35 34 26 25 24 25 26 27 27 24 28 32 30 26 28 29 25 24 22 24 22 22 23 24 26 26 26

GFSMA_sfc_dewp_084.txt.gz
Dewpoint
61 59 59 59 58 58 56 55 54 53 52 54 56 56 55 56 56 56 57 57 57 59 61 62 62 63 66 66 65 64 63 62 60 60 59 57 55 56 57 56 57 57 57
59 59 57 58 58 58 56 54 53 54 55 57 57 57 58 58 58 58 58 59 60 60 62 63 63 62 63 66 66 66 65 64 64 62 62 61 59 57 57 56 55 56 56
61 60 59 60 60 60 57 56 54 58 59 58 57 57 58 59 58 59 59 59 60 60 61 63 64 64 63 64 65 65 65 65 65 65 64 63 62 60 59 58 56 56 56
63 62 61 61 61 59 59 58 58 58 57 56 56 58 58 59 59 58 58 58 58 59 61 63 63 64 64 64 65 65 63 64 64 64 64 64 64 63 61 60 58 57 58
64 62 60 60 61 59 59 58 59 57 56 55 56 57 59 59 58 57 56 57 59 59 59 61 62 62 63 64 64 64 62 62 63 62 62 62 63 63 63 63 61 59 58
65 63 60 60 60 60 58 58 57 57 55 56 57 57 58 58 58 58 57 56 57 58 58 59 60 60 61 62 63 63 61 61 62 62 61 60 60 61 61 63 63 62 60
61 62 59 60 60 59 59 58 57 56 57 59 60 59 56 57 57 56 56 55 55 55 57 58 60 59 59 61 62 61 61 63 60 59 58 58 58 58 58 59 59 61 63
63 63 62 61 60 60 61 59 58 58 59 61 59 59 53 53 54 54 55 55 55 55 56 56 57 58 59 60 60 62 61 59 59 58 57 57 56 58 58 59 60 60 61
65 65 65 65 64 64 64 63 61 61 62 62 62 57 53 50 53 53 55 54 54 54 55 55 55 56 57 57 57 57 58 59 57 57 56 54 56 56 57 57 57 58 59
65 65 65 65 64 64 63 63 64 64 63 60 62 61 59 56 52 48 52 53 53 50 52 53 53 53 54 55 54 56 57 58 56 56 55 55 55 55 55 55 56 56 58
64 64 64 64 64 64 63 62 62 61 61 60 59 59 59 59 59 56 44 45 50 50 51 51 52 52 52 53 54 55 57 56 55 55 54 54 53 54 54 54 55 55 56
63 63 64 64 63 62 61 60 60 59 60 59 60 60 59 54 51 52 50 46 47 48 51 51 51 51 52 52 52 54 55 55 55 54 54 53 52 52 53 56 55 54 54
62 62 63 63 62 62 61 60 60 59 59 59 58 57 56 53 52 52 51 48 48 47 47 49 50 50 50 51 52 51 52 53 53 52 52 52 51 51 53 56 54 52 52
62 62 62 62 62 62 60 59 59 59 58 57 56 55 54 54 54 53 50 48 47 47 47 46 50 49 50 50 50 50 50 50 50 50 51 50 49 49 50 53 55 55 55
62 62 62 62 61 59 58 58 56 53 53 53 53 53 51 51 52 53 52 51 49 45 44 45 47 49 49 49 49 48 49 49 48 48 48 47 47 49 50 51 52 52 53
60 60 60 60 58 57 55 54 51 50 50 50 50 50 50 51 51 52 52 52 51 49 45 47 48 48 48 46 47 46 46 46 45 46 46 45 45 47 48 50 50 51 52
57 58 57 55 53 52 50 49 48 48 47 48 48 49 49 49 50 50 51 50 50 50 47 48 47 47 47 46 44 44 44 43 43 45 43 44 43 46 46 46 47 47 49
54 54 53 51 49 48 47 46 46 45 45 46 46 47 47 46 47 48 48 47 48 49 48 46 46 44 44 44 43 42 41 39 39 40 42 40 43 44 43 43 42 44 45
51 51 50 49 47 45 44 44 43 44 44 44 44 44 45 45 46 46 47 47 47 46 47 47 46 45 43 42 41 40 39 37 32 38 39 40 39 42 41 38 36 37 40
47 47 47 45 44 43 43 42 42 42 42 42 42 42 43 44 45 45 45 45 45 45 45 44 44 43 41 40 40 38 37 36 32 27 31 33 34 38 38 34 32 33 35
44 44 44 43 42 42 41 42 41 41 41 41 41 41 42 43 43 44 43 44 43 43 43 43 42 40 39 38 38 37 37 35 31 31 32 30 29 29 35 29 30 32 34
43 43 42 42 42 40 42 43 42 41 40 40 40 40 40 41 42 43 42 41 41 41 41 40 40 39 39 38 36 35 34 33 33 32 32 31 26 26 24 27 30 31 32
43 42 42 41 41 40 43 43 42 41 41 41 42 42 41 40 40 41 40 40 39 38 38 39 38 38 38 37 35 34 32 33 34 27 29 27 24 22 23 22 31 30 31
43 43 42 41 41 41 44 44 43 42 42 40 40 41 41 40 38 38 34 33 33 32 31 32 36 37 35 35 35 35 34 34 30 28 28 25 21 20 23 24 30 31 30
43 43 42 41 42 41 43 44 43 42 40 39 39 40 39 37 37 36 32 30 27 28 32 32 32 32 33 33 33 32 32 31 27 24 26 22 23 21 22 23 30 31 31
43 43 41 43 41 41 42 43 42 39 38 37 37 37 38 37 37 37 31 30 26 24 28 31 30 32 32 32 29 29 32 35 29 25 22 24 21 21 24 24 26 29 30

GFSMA_sfc_dewp_087.txt.gz
Dewpoint
62 60 59 58 58 57 56 56 54 52 51 51 51 52 51 52 54 55 56 59 60 60 61 62 62 63 65 67 65 64 63 62 61 60 60 58 57 56 56 56 56 57 57
60 60 58 58 57 56 55 54 53 52 50 51 54 55 55 57 57 57 59 58 61 61 62 63 64 64 63 65 66 66 66 65 64 63 62 62 60 59 57 56 56 56 56
57 56 56 56 57 57 55 54 51 51 53 54 55 55 56 57 57 57 58 59 61 61 63 64 65 65 65 64 65 65 66 66 65 65 64 64 63 62 61 59 58 56 57
59 59 58 59 59 59 58 55 54 53 56 56 55 55 56 58 57 57 58 58 59 58 62 64 65 64 65 65 65 65 64 66 65 64 64 64 64 64 63 62 60 59 58
62 61 62 62 60 61 57 57 57 56 56 56 55 55 57 58 57 56 55 56 57 59 60 63 63 63 63 64 64 65 64 64 64 63 62 62 62 63 63 63 62 61 60
65 64 61 59 60 61 58 58 56 57 56 55 53 55 58 59 59 57 55 55 56 58 57 58 60 60 62 63 63 64 63 63 63 62 61 60 60 60 60 61 62 62 62
65 64 63 59 60 61 60 58 57 57 57 57 57 57 58 57 56 56 56 55 55 55 55 58 59 60 61 61 62 63 62 63 62 60 59 59 58 58 59 59 61 61 61
63 63 63 61 61 62 61 60 59 58 57 59 60 58 56 56 55 55 54 54 54 55 55 56 56 57 59 60 60 62 62 61 60 59 58 58 57 58 57 58 58 59 60
65 65 64 65 65 64 63 64 63 59 59 62 62 59 54 52 53 54 55 55 53 53 54 55 54 56 57 58 58 57 58 60 58 58 58 56 56 56 56 56 57 57 57
64 65 65 65 65 65 63 63 63 64 63 61 63 62 59 58 53 50 54 52 53 49 51 53 54 54 55 56 54 55 57 59 56 57 56 56 55 55 55 56 56 56 56
64 64 65 65 64 64 63 63 63 62 61 60 59 58 58 58 58 55 49 49 52 51 52 52 51 52 53 55 56 55 56 56 55 55 56 55 54 54 54 55 57 56 55
63 63 64 64 64 63 63 62 60 60 60 60 59 58 57 55 56 55 52 48 48 50 51 52 52 52 53 53 52 54 55 56 56 55 54 54 54 53 54 55 57 54 54
60 61 63 63 63 63 62 61 60 60 59 58 58 58 58 58 56 53 51 50 48 49 49 51 51 51 50 53 52 52 53 54 54 53 53 54 52 51 52 54 56 54 54
60 61 62 62 63 62 62 61 60 59 59 59 59 59 57 56 55 54 52 50 48 48 48 48 50 50 51 51 50 50 50 51 52 52 52 51 49 50 51 52 54 55 55
62 61 62 62 62 62 61 61 59 59 58 58 58 56 54 54 54 54 54 53 49 46 46 47 48 50 50 50 49 49 49 50 49 49 49 48 47 48 50 51 51 52 53
62 62 61 61 62 61 60 59 57 56 55 54 53 52 51 52 52 54 54 53 52 49 47 47 49 49 49 47 47 48 47 47 46 47 46 46 45 46 47 48 49 49 50
59 59 60 61 59 58 58 57 55 53 52 51 51 50 50 51 51 52 52 52 51 51 48 49 49 48 48 48 45 45 45 44 44 45 44 44 44 46 45 45 46 47 47
56 57 57 57 56 55 55 54 52 50 49 48 48 49 49 48 49 49 50 49 49 48 48 47 48 46 46 45 44 43 41 39 39 42 42 42 43 44 43 42 42 42 44
52 54 54 53 52 51 50 49 47 47 47 47 47 47 47 47 47 48 48 48 48 47 49 48 46 46 45 43 42 41 40 38 34 40 40 41 40 42 41 38 36 36 38
49 50 51 51 49 47 47 45 45 45 46 45 45 45 45 45 46 46 47 47 47 47 47 45 45 44 43 42 42 39 38 38 34 29 34 35 36 39 38 34 33 34 36
46 47 47 46 45 44 43 44 44 44 43 43 43 43 44 44 44 45 46 45 45 45 44 44 43 42 41 39 38 39 38 36 34 33 32 33 33 35 37 31 30 32 34
45 45 45 44 44 42 44 45 44 42 42 42 41 42 42 42 42 42 42 42 43 43 43 42 41 40 40 39 38 36 35 33 34 33 32 33 28 30 28 29 30 31 31
46 45 44 43 43 42 44 45 44 43 43 42 42 42 41 41 42 42 42 41 40 40 39 41 39 39 38 38 37 35 34 34 34 29 31 31 27 26 26 24 31 31 31
46 45 45 44 43 42 44 44 44 43 43 43 42 42 42 40 40 40 39 38 36 35 34 35 38 39 38 37 37 36 35 34 32 29 29 28 24 23 25 27 29 31 30
45 45 45 44 43 43 44 44 43 43 40 39 39 39 40 40 40 40 36 35 33 32 32 31 33 34 34 36 36 35 35 33 30 26 26 24 23 24 24 25 30 32 31
43 45 44 44 44 43 44 45 44 41 39 38 39 39 40 39 39 39 34 32 29 28 30 32 33 33 34 33 31 31 34 32 31 27 26 27 23 23 24 25 29 31 32

GFSMA_sfc_dewp_090.txt.gz
Dewpoint
61 61 61 62 61 60 59 59 57 55 52 51 51 50 50 49 51 55 52 60 61 62 61 62 63 63 63 66 66 65 64 63 61 61 60 59 57 56 56 56 55 56 56
60 60 59 59 59 57 57 56 54 53 52 51 51 53 53 55 56 56 57 56 62 62 63 63 63 64 64 64 65 66 66 65 64 64 63 62 62 60 58 58 57 56 56
60 59 57 57 57 56 55 54 53 52 52 52 53 55 56 56 57 57 58 58 59 62 64 65 65 65 65 65 65 65 66 66 65 65 65 64 64 63 62 61 60 58 57
57 57 56 56 57 57 57 56 54 52 54 56 56 56 55 57 57 57 58 58 60 59 62 65 66 65 65 65 65 65 65 66 66 65 64 64 64 64 64 63 62 61 59
59 59 59 59 60 60 58 57 55 54 55 56 56 55 56 57 57 57 56 56 56 58 59 63 63 64 64 64 64 64 65 66 65 64 63 62 61 61 62 62 63 63 62
62 62 61 61 60 61 58 58 57 57 57 56 54 53 56 58 58 58 56 55 55 55 55 56 60 60 62 63 63 63 64 64 63 63 62 61 60 59 59 59 61 61 61
65 65 64 60 59 61 59 58 57 56 57 56 55 56 57 58 58 57 56 54 53 54 54 57 58 58 61 62 63 63 63 63 63 62 60 59 58 58 59 60 59 60 60
64 64 64 62 59 61 61 60 58 57 57 57 57 57 55 56 56 55 53 53 52 52 54 55 54 56 58 59 59 61 62 63 62 60 59 59 58 58 57 58 58 58 58
64 63 63 63 63 63 62 62 62 62 59 59 59 58 55 52 53 54 53 53 52 51 52 54 54 54 55 56 57 56 58 59 58 59 59 58 57 56 56 56 57 57 57
64 63 63 63 63 63 62 62 62 62 61 61 61 62 59 57 52 51 53 51 51 49 49 51 52 53 54 55 55 55 56 58 57 57 59 58 56 55 55 56 56 57 57
63 63 63 63 63 63 62 62 62 62 62 60 60 58 58 57 57 54 49 48 50 50 51 50 50 51 52 53 54 55 56 56 56 56 58 56 55 55 55 55 56 57 56
62 62 63 63 64 63 62 62 62 61 61 60 59 59 57 55 55 54 53 53 50 48 50 50 50 51 52 52 53 54 55 57 56 56 55 56 55 54 54 54 55 56 55
60 61 61 62 63 62 62 62 60 60 60 59 59 58 58 57 57 56 54 50 48 48 48 50 50 50 50 52 51 52 53 54 54 54 55 56 52 52 52 53 54 55 55
59 59 61 61 62 62 62 61 60 59 59 58 58 58 58 58 58 55 52 50 47 47 47 47 50 50 50 49 50 51 51 53 53 54 53 51 50 50 51 51 52 53 54
60 60 61 61 60 60 61 61 60 59 59 58 58 58 57 55 55 54 53 51 48 44 46 47 48 49 49 49 49 50 48 51 50 50 49 48 47 48 48 50 51 51 51
60 61 60 61 61 60 61 61 60 59 58 57 56 55 53 53 53 53 53 52 51 48 45 46 48 48 47 48 48 48 47 47 48 47 47 46 46 46 47 48 48 48 49
58 60 60 60 60 61 61 60 58 57 56 55 53 53 52 51 51 51 52 51 50 49 47 46 47 46 46 46 45 45 45 44 45 45 45 44 44 46 45 45 45 45 46
54 56 57 59 59 59 59 58 56 55 55 53 52 50 50 50 50 51 50 49 49 49 48 46 46 45 45 44 44 43 42 40 40 42 43 43 43 45 43 42 41 40 41
50 53 54 55 55 55 56 56 55 53 52 50 49 49 49 48 48 47 48 48 47 47 48 46 43 45 42 43 42 42 40 39 35 41 41 41 41 42 43 38 37 36 37
47 49 51 52 51 50 50 50 48 48 47 47 47 47 47 47 46 46 46 46 46 45 46 46 45 43 42 42 42 39 39 39 36 31 35 36 39 39 39 35 33 34 36
45 46 48 47 46 46 45 46 46 46 46 46 47 46 46 46 45 46 46 45 44 45 44 42 42 41 40 38 38 39 38 37 36 34 32 33 33 34 38 34 31 33 33
45 45 45 45 44 43 45 46 45 45 44 44 43 43 43 43 43 44 44 45 44 43 42 41 40 40 40 39 39 37 36 34 34 34 32 32 31 31 29 29 30 31 31
45 44 44 44 43 43 45 46 46 43 43 43 42 42 41 41 41 41 43 42 41 42 42 41 38 38 38 38 37 35 34 34 34 31 32 31 27 26 24 27 31 31 31
43 43 43 43 42 43 45 45 45 41 41 39 38 39 39 38 39 40 39 36 35 36 36 36 39 38 38 38 37 36 35 34 30 28 29 28 23 23 25 25 30 32 30
42 43 44 43 42 41 44 45 43 38 38 38 39 40 39 38 41 42 38 34 34 32 32 32 35 37 38 38 37 36 34 32 31 27 26 24 22 22 23 24 27 32 31
41 43 43 43 43 42 44 45 43 40 39 39 39 39 41 40 41 41 35 34 31 30 31 31 31 33 34 34 37 31 31 32 29 21 25 23 22 22 20 24 29 30 31

GFSMA_sfc_dewp_093.txt.gz
Dewpoint
63 63 63 63 63 63 62 62 60 58 56 54 51 52 50 50 49 52 53 61 62 64 62 63 63 63 64 66 67 65 64 64 62 61 61 60 58 57 57 56 56 56 56
62 62 62 62 62 61 61 60 58 57 54 52 51 51 52 51 51 54 51 56 62 63 64 63 64 64 64 65 65 66 67 66 65 64 63 63 62 61 60 59 58 57 56
61 61 61 61 61 59 57 57 55 53 52 51 51 52 54 54 56 57 57 54 58 62 64 65 65 65 65 65 65 65 67 66 66 65 65 65 64 64 63 62 61 59 58
60 59 58 59 58 57 55 54 53 52 52 53 54 55 55 55 56 57 57 58 57 58 62 65 66 67 66 65 65 65 66 67 67 66 65 64 64 63 64 64 63 62 61
59 58 57 57 56 57 57 56 54 53 52 55 57 56 56 56 57 57 57 58 58 59 60 62 63 64 65 65 64 64 65 66 67 66 64 63 61 61 62 61 61 62 62
58 57 58 57 58 59 58 57 55 55 54 55 55 54 55 57 58 58 57 56 56 57 57 59 60 60 61 63 64 64 64 65 65 64 63 62 61 59 59 59 61 61 61
60 60 61 60 60 60 58 57 57 56 57 57 55 55 55 57 57 58 57 55 54 54 56 57 57 59 61 62 62 63 63 64 64 63 62 60 59 59 59 59 59 59 59
63 64 62 61 59 61 59 58 57 57 57 57 55 56 54 55 56 56 56 53 53 53 55 55 55 57 59 58 59 61 62 62 63 62 60 59 59 58 57 57 57 57 58
63 63 64 63 62 62 61 61 61 59 57 58 58 58 55 53 54 54 53 53 51 51 53 54 55 55 56 56 56 56 58 60 61 61 60 59 58 56 56 56 56 57 57
63 63 63 63 63 63 62 62 62 61 61 59 61 62 60 58 54 51 54 53 51 49 50 52 53 53 54 54 55 55 56 58 57 59 60 60 57 56 55 55 56 56 57
62 63 63 63 62 62 62 62 61 61 61 60 59 59 58 57 57 54 51 49 50 50 50 50 51 52 53 54 54 55 57 56 56 57 59 59 57 55 55 55 55 56 55
61 61 62 62 62 62 61 61 61 61 61 61 59 58 57 56 55 54 53 53 52 54 51 50 50 51 52 52 53 54 56 57 57 57 58 58 56 54 53 53 54 55 56
60 61 60 60 62 62 61 61 61 60 61 60 59 58 58 57 57 56 55 53 51 49 49 50 50 51 51 51 51 52 53 54 55 55 57 57 53 52 52 52 53 53 54
60 60 61 60 61 62 61 61 60 60 60 60 59 59 58 58 57 57 55 53 49 48 47 48 49 51 50 50 51 51 51 54 54 55 55 52 50 50 50 51 51 52 53
60 60 60 60 60 61 61 61 60 59 59 59 59 58 58 57 57 57 55 52 51 45 46 47 48 49 48 48 49 48 48 51 51 50 49 48 47 47 48 49 49 49 50
60 60 60 60 60 60 60 60 60 59 59 59 58 57 57 57 57 55 54 52 51 47 44 46 47 47 48 48 49 48 47 48 49 48 47 46 46 46 47 47 47 47 47
58 58 60 60 60 60 60 60 59 59 58 58 57 57 56 55 54 53 53 52 51 50 46 46 46 46 45 45 45 46 45 44 46 46 45 45 44 45 45 44 44 43 44
50 53 55 57 59 59 60 60 59 59 58 56 55 55 54 53 52 52 51 50 50 50 48 45 44 43 44 46 45 44 43 42 42 42 45 44 43 45 44 42 40 40 39
47 49 52 53 55 56 57 58 58 57 57 56 55 55 54 52 51 50 50 50 49 48 46 44 43 44 43 43 42 42 41 40 37 41 43 42 42 43 44 39 37 37 37
45 46 48 50 51 52 53 54 54 53 53 53 52 52 52 51 49 48 48 48 46 45 44 44 44 43 42 42 42 40 39 39 38 34 38 37 41 40 43 37 34 34 35
45 45 45 47 47 47 48 48 49 49 49 48 50 50 49 49 47 48 47 47 46 44 42 40 41 42 41 39 39 39 39 37 38 36 32 34 36 35 39 36 32 33 33
43 44 44 44 45 45 45 47 47 47 47 46 46 46 47 46 47 48 48 48 47 44 42 40 41 41 40 39 37 36 36 35 35 36 33 33 32 32 34 31 32 31 32
41 42 43 43 43 43 45 46 46 45 45 45 44 44 43 44 44 45 46 46 46 46 44 41 40 41 39 38 38 36 35 35 35 33 33 32 28 28 26 29 31 31 31
40 41 42 44 44 43 45 45 46 42 42 42 42 42 41 41 40 41 40 38 38 39 40 41 40 39 38 38 37 37 36 34 30 29 31 31 25 24 25 25 30 31 31
39 41 42 42 43 44 44 45 44 39 38 38 38 40 40 40 42 43 38 35 35 34 37 37 38 40 41 41 39 36 33 33 31 29 27 26 22 22 23 23 26 30 31
38 39 41 42 43 43 44 45 44 40 38 39 40 39 41 39 42 43 37 35 33 32 31 31 32 35 38 38 40 34 33 31 31 26 25 23 22 22 19 24 28 29 30

GFSMA_sfc_dewp_096.txt.gz
Dewpoint
65 65 64 65 63 65 64 62 61 60 57 56 55 54 53 51 50 51 53 61 63 65 65 64 64 64 66 67 67 66 65 64 62 62 61 60 59 58 57 57 57 56 56
65 64 64 63 63 64 63 62 60 59 56 55 54 51 52 50 49 52 51 55 62 63 65 64 64 65 65 65 65 66 67 66 65 64 63 63 63 62 61 60 59 59 58
65 64 63 62 63 63 62 60 59 58 56 54 51 51 52 52 53 54 52 52 57 61 63 65 65 65 65 65 65 66 67 67 66 66 65 65 64 64 64 63 62 61 60
63 64 63 62 62 62 60 59 58 55 53 52 51 52 53 55 55 56 57 54 55 56 61 64 66 67 66 66 65 64 66 67 67 67 66 65 65 64 64 64 63 63 62
61 62 62 61 60 59 58 56 55 53 52 53 54 55 56 55 56 57 57 57 57 58 59 61 63 64 65 65 64 64 64 66 67 67 65 64 62 61 61 61 61 62 62
61 61 60 59 58 58 57 56 54 54 52 53 55 56 56 56 57 57 57 57 58 59 59 59 60 60 61 63 63 63 64 65 66 65 64 62 61 60 59 59 60 60 60
60 60 59 57 58 56 56 56 55 54 55 54 55 55 55 55 57 58 58 57 56 57 57 58 58 59 60 62 62 62 64 64 65 64 63 62 60 59 59 58 58 58 58
60 60 59 57 57 58 58 57 57 57 56 57 55 55 53 55 57 57 57 55 54 54 56 56 56 58 58 58 58 60 62 62 63 63 62 60 60 59 57 56 56 57 57
62 61 60 60 60 60 59 59 58 57 56 58 57 57 54 53 55 55 55 54 53 53 55 54 56 57 56 56 56 56 58 60 62 62 61 60 59 57 56 55 56 56 56
62 62 62 62 61 61 61 60 60 59 59 58 59 60 58 56 52 51 54 53 52 51 54 54 54 54 55 54 55 55 57 58 58 61 61 60 59 57 55 55 56 56 56
62 62 63 63 61 61 61 61 61 60 60 59 59 59 58 58 57 54 52 52 53 51 52 52 53 53 54 54 53 55 57 56 57 57 60 60 59 56 55 55 55 55 56
61 62 62 62 62 62 61 61 60 60 60 59 60 59 58 57 56 54 53 53 53 55 55 51 52 52 53 53 54 55 56 58 57 58 58 59 58 55 53 53 54 54 55
59 60 61 61 61 61 61 61 60 60 61 60 60 60 58 57 56 56 55 53 52 53 52 51 51 52 52 52 52 52 54 56 56 56 57 58 55 53 52 52 53 53 53
60 60 61 61 60 61 61 61 61 60 61 60 60 59 58 57 56 56 55 53 51 51 49 49 50 50 51 51 51 52 52 55 56 56 57 54 51 50 50 51 52 52 52
60 60 60 60 60 60 61 61 60 60 59 60 60 59 58 58 57 57 56 55 53 48 48 47 48 49 49 49 50 48 48 52 52 51 50 49 48 48 48 49 49 49 49
59 59 59 60 60 60 60 60 60 59 59 59 59 58 58 58 57 57 55 54 53 50 47 48 47 48 48 48 49 47 47 49 50 49 48 47 46 46 47 47 47 47 46
54 56 58 59 59 59 59 60 59 59 58 58 58 57 57 57 57 56 55 53 51 49 46 46 47 46 46 46 46 46 46 45 45 47 46 46 45 45 45 45 43 43 43
47 49 52 54 57 59 59 59 59 59 58 58 58 57 56 55 56 55 54 53 52 50 49 45 45 45 45 45 44 45 44 44 42 44 45 46 45 45 45 43 41 39 39
46 46 48 50 52 53 56 58 59 59 58 58 58 56 56 55 55 54 53 52 51 49 47 46 44 44 44 44 43 43 42 40 39 41 44 44 44 45 45 42 38 37 36
44 45 45 47 48 49 51 52 55 55 56 56 56 56 56 55 55 53 52 51 49 48 46 45 44 43 42 42 42 40 40 40 39 36 40 40 40 43 43 41 36 34 34
42 43 44 45 45 46 46 47 49 51 52 52 51 52 53 52 50 52 51 49 48 47 43 42 41 41 41 40 40 40 40 39 39 38 34 35 37 37 38 39 34 34 33
40 41 41 42 43 44 46 47 46 47 48 49 49 49 50 48 49 50 50 48 48 47 44 42 40 41 41 39 38 38 37 35 35 35 33 32 33 33 35 36 34 33 32
38 38 39 41 42 43 45 46 46 45 46 46 46 46 46 46 47 47 49 49 48 48 47 45 43 41 39 38 38 36 33 33 35 34 33 33 31 31 29 29 33 32 32
37 38 38 39 41 42 45 46 46 43 42 42 43 44 44 43 43 44 44 43 44 45 45 44 43 41 40 40 39 37 36 34 31 32 33 31 26 27 26 25 30 31 32
34 36 38 38 40 41 43 45 45 42 40 38 39 41 43 42 43 44 41 39 39 38 40 42 42 42 42 42 39 36 33 34 31 29 29 28 23 22 23 23 25 31 33
32 34 36 35 38 38 41 43 44 43 40 40 40 38 42 42 43 44 40 38 37 36 34 35 36 38 41 41 41 36 34 34 32 30 28 26 22 23 21 23 27 29 30

GFSMA_sfc_dewp_099.txt.gz
Dewpoint
64 65 65 64 63 65 65 64 62 60 58 56 56 55 54 52 51 51 54 60 65 67 66 64 65 66 66 66 66 66 65 64 63 62 61 61 59 59 58 58 58 58 58
64 65 65 64 63 64 64 64 62 60 58 56 55 54 53 53 51 50 52 54 62 64 66 65 65 65 65 65 66 66 67 67 66 65 63 63 62 62 61 61 61 60 60
64 64 64 64 64 64 63 62 62 60 57 55 54 53 52 51 50 50 51 51 55 61 63 65 65 65 65 65 65 66 67 67 67 66 66 65 64 64 64 64 63 63 62
64 64 64 64 64 64 63 62 60 59 57 55 53 52 51 52 53 54 54 51 52 54 60 64 66 67 66 66 65 64 65 67 67 67 66 66 65 65 64 63 63 63 63
64 62 63 63 62 63 62 61 59 58 55 54 53 52 52 54 55 55 56 56 54 55 56 60 63 64 65 66 65 64 64 65 67 67 66 65 64 61 61 61 61 61 61
63 63 61 61 62 61 61 59 59 56 54 54 52 53 55 55 56 56 56 57 58 57 57 58 59 61 63 63 64 63 63 64 65 66 65 64 62 61 60 60 60 59 59
61 62 62 62 62 60 59 58 57 54 54 53 54 54 55 55 55 56 57 57 57 58 59 59 59 59 61 62 62 62 63 63 64 66 64 63 62 60 60 59 58 57 57
61 62 61 60 60 59 58 57 56 55 54 55 53 54 53 54 56 56 57 57 56 56 57 57 58 58 58 58 58 60 61 63 63 64 64 62 60 60 59 57 56 56 57
63 61 61 61 59 59 58 58 57 56 55 57 57 56 53 52 54 55 55 56 54 54 56 56 56 58 57 56 57 57 59 60 63 64 63 61 61 59 57 56 56 56 56
63 63 62 61 60 59 59 59 59 58 58 56 57 59 58 56 53 52 53 53 52 52 54 55 55 56 56 55 55 55 56 58 59 63 62 61 60 59 57 55 55 56 56
62 63 63 62 61 60 59 60 59 59 59 57 57 58 57 57 56 54 52 53 54 53 54 54 54 55 54 54 54 54 55 56 57 58 60 61 61 59 56 55 55 55 55
61 61 62 62 61 61 60 59 59 59 59 59 59 58 57 56 56 54 54 53 53 54 54 53 53 54 54 54 54 55 57 58 57 57 58 60 60 57 55 54 54 53 54
60 61 61 61 61 61 60 60 60 60 60 60 59 59 59 58 57 57 56 54 52 53 53 53 52 53 53 54 54 54 55 57 57 57 57 59 57 54 53 53 53 52 53
60 60 61 61 61 61 61 60 60 60 60 60 59 59 59 59 58 57 56 54 51 50 49 48 50 52 52 52 52 53 53 56 57 56 58 55 53 51 51 51 51 51 51
60 60 59 59 60 60 60 60 59 59 60 59 59 60 59 59 59 58 58 57 54 51 50 49 49 50 51 51 51 50 50 54 54 54 52 51 49 49 49 49 49 48 48
55 58 59 59 59 59 60 60 59 60 60 59 59 59 59 59 58 58 57 56 55 54 51 49 48 49 49 49 50 47 48 50 52 51 50 48 47 47 48 47 47 46 45
50 51 54 56 57 59 59 59 59 59 59 58 58 58 58 58 58 57 57 56 54 53 49 46 47 47 47 48 47 47 47 46 47 49 48 48 47 46 46 46 44 43 42
45 46 47 50 52 54 57 59 58 59 58 58 58 57 57 57 57 56 55 54 53 50 49 45 45 45 46 46 46 45 45 45 44 46 46 46 46 46 46 44 42 40 39
43 44 45 46 47 49 50 52 55 57 58 58 58 57 57 57 56 56 55 55 54 51 50 47 44 45 44 46 44 44 43 41 41 42 44 46 46 45 46 45 40 38 36
41 41 43 44 44 45 46 47 49 51 53 55 56 57 57 57 56 55 55 55 53 52 50 48 44 43 43 43 44 42 41 41 39 37 41 42 43 43 44 45 40 35 34
39 40 41 41 42 43 44 45 45 46 47 50 52 53 54 54 52 55 54 54 52 51 48 46 43 42 41 41 42 41 41 39 39 39 37 38 38 39 39 44 37 35 34
37 38 38 39 40 41 44 46 46 45 45 46 48 50 51 49 50 51 51 51 51 50 48 46 42 43 41 41 41 40 38 36 36 39 37 35 34 34 36 38 37 35 33
35 35 37 38 38 40 43 44 45 45 43 43 45 46 47 47 48 49 50 50 49 50 50 47 44 43 42 40 40 36 35 35 36 34 35 33 33 32 33 34 38 35 33
32 34 34 36 37 37 39 42 43 43 43 42 41 42 44 44 44 46 46 45 46 47 47 46 46 44 44 42 42 39 38 34 32 33 34 31 28 30 27 27 33 33 33
30 31 33 34 34 35 38 36 40 41 41 41 41 41 42 43 44 46 43 42 42 41 45 46 46 45 45 45 41 38 35 36 32 31 32 32 25 25 24 24 25 33 32
29 30 31 31 32 32 36 36 37 40 40 41 42 41 42 42 43 45 43 41 40 39 38 39 40 42 43 43 42 40 37 37 32 31 30 29 23 23 22 23 25 28 30

GFSMA_sfc_dewp_102.txt.gz
Dewpoint
63 65 65 64 64 65 65 65 64 62 59 56 54 53 52 51 51 52 54 59 64 67 67 66 66 67 66 66 66 66 65 65 63 62 62 61 60 59 59 59 59 59 59
63 63 64 64 64 65 64 64 63 61 59 57 55 55 54 54 52 51 51 54 60 65 66 66 65 66 66 66 66 67 67 67 66 65 64 63 63 62 62 62 62 61 61
63 63 63 63 63 65 64 63 63 61 59 57 55 54 54 53 53 51 50 51 53 61 63 64 65 66 66 66 65 66 67 67 67 67 66 65 64 64 64 64 64 63 63
63 63 63 63 64 64 64 63 62 61 59 58 55 54 53 52 51 51 50 51 51 53 59 63 65 67 67 66 66 66 65 66 67 67 67 66 65 65 64 62 62 62 62
64 64 63 63 64 64 64 63 62 61 59 58 55 54 53 52 52 53 54 54 52 53 54 59 62 63 65 66 66 65 64 65 67 67 67 66 65 64 61 61 62 61 60
64 64 62 62 62 60 62 62 62 59 59 58 55 54 53 53 54 55 55 56 56 54 54 55 57 60 62 65 65 64 64 64 65 66 66 65 64 62 61 61 60 59 59
62 63 63 61 62 59 58 60 61 60 57 55 54 54 54 55 55 55 56 57 57 57 58 57 58 59 60 63 64 63 63 64 64 65 66 64 63 61 60 60 58 57 57
61 61 62 62 62 61 60 60 59 58 58 56 53 53 51 53 55 55 56 56 57 57 57 58 58 59 59 60 60 62 62 63 64 65 65 64 62 61 61 58 57 56 56
62 62 62 62 62 61 60 60 60 59 56 56 55 54 52 51 52 55 55 56 56 56 56 57 58 58 58 58 59 59 59 61 63 64 64 63 61 61 59 58 56 56 56
61 62 62 62 61 61 61 60 59 59 57 55 56 56 56 55 53 52 54 54 54 54 55 56 56 57 57 56 56 56 57 59 60 64 62 62 62 61 59 58 56 55 57
61 61 62 62 61 61 60 60 59 59 58 57 56 56 56 56 55 53 52 52 53 53 54 55 56 57 57 57 55 55 57 58 59 61 63 63 62 61 60 57 56 54 55
60 61 61 62 62 62 61 60 60 59 58 58 58 57 56 55 55 54 52 52 52 53 53 55 55 56 56 54 54 54 56 57 58 59 60 61 62 61 59 56 55 54 53
59 60 60 60 60 61 61 60 60 59 59 58 58 58 57 57 57 56 55 54 53 54 54 53 53 54 54 54 54 54 56 58 59 58 59 61 60 58 56 55 54 53 53
59 60 60 61 61 61 61 61 60 60 60 60 60 59 59 59 58 57 56 55 53 52 51 51 51 53 53 53 54 54 55 56 58 59 58 59 56 55 54 53 53 52 51
53 55 59 59 60 61 61 60 60 59 59 59 59 59 59 59 59 59 58 58 56 52 52 49 49 51 52 53 53 53 53 55 57 58 56 54 52 52 52 51 51 50 49
50 51 52 54 56 58 59 59 59 59 59 59 59 58 59 59 59 59 58 58 57 56 53 51 50 50 51 51 52 51 51 53 54 54 52 51 50 50 50 50 49 48 46
46 47 48 50 51 53 55 57 59 59 58 58 58 58 58 58 58 58 58 58 57 56 54 47 48 48 49 49 49 48 49 49 51 52 50 49 49 48 48 48 47 45 43
42 42 44 45 46 47 49 51 52 55 58 58 58 58 57 58 58 58 57 56 56 55 52 46 45 46 47 49 48 47 47 47 47 50 49 49 48 48 47 46 44 43 41
39 40 41 41 42 43 45 46 47 48 51 53 56 57 57 57 56 57 56 55 54 52 52 47 44 45 45 47 46 46 45 44 44 46 48 48 47 47 47 46 43 41 39
37 38 38 39 40 41 43 44 45 45 45 47 49 52 54 56 57 56 56 56 55 53 52 48 45 45 43 45 46 43 42 42 40 40 44 45 46 46 47 47 43 40 37
34 36 37 37 38 38 40 43 44 44 44 44 45 47 50 51 49 52 55 55 55 54 52 50 44 42 43 43 43 43 43 41 41 39 38 40 41 42 43 44 42 39 37
32 33 32 34 37 37 39 38 41 42 43 43 43 44 46 47 48 50 51 50 53 53 51 49 47 45 44 44 44 42 39 38 37 40 38 37 39 38 39 40 40 39 36
31 31 31 33 35 36 36 37 37 39 41 42 42 42 43 44 45 46 48 49 50 51 51 50 48 47 45 44 43 41 38 37 37 36 37 36 34 35 35 37 41 39 36
29 29 30 32 33 31 35 35 37 36 39 40 40 40 41 42 43 44 45 45 46 49 50 49 50 49 47 45 43 43 42 38 34 35 35 34 31 32 30 30 40 39 36
27 28 29 30 30 30 33 34 34 34 36 35 36 40 40 41 43 44 44 42 43 44 45 47 47 47 46 46 45 41 38 37 33 33 34 33 27 27 26 25 27 36 35
27 28 28 29 31 29 32 33 32 31 32 34 37 35 40 41 43 44 43 43 41 42 41 41 43 45 46 45 44 43 39 38 33 32 32 31 25 25 25 24 25 28 31

GFSMA_sfc_dewp_105.txt.gz
Dewpoint
67 67 67 67 67 66 66 66 66 64 60 57 55 54 54 54 53 53 54 59 63 66 67 66 66 66 66 66 65 65 65 65 64 63 62 61 60 59 59 59 59 60 60
66 66 66 66 66 67 66 67 65 64 62 59 56 54 53 53 52 52 53 54 60 64 66 67 66 66 67 67 66 67 67 67 67 66 64 63 63 62 62 62 62 62 62
65 65 65 66 65 66 66 66 66 64 63 60 58 56 55 54 55 54 53 53 54 59 64 64 66 66 66 66 66 66 68 67 67 67 67 65 65 64 64 63 64 63 62
65 65 65 65 65 65 66 66 64 63 62 61 59 57 55 55 54 54 54 53 53 52 58 63 65 66 67 66 66 66 67 67 67 68 67 67 66 65 65 63 62 61 61
63 64 65 65 65 65 65 65 64 63 62 60 60 59 57 55 53 53 53 53 53 53 53 57 62 63 65 67 66 66 66 66 66 67 67 67 66 65 64 62 62 61 60
63 64 64 64 65 64 64 64 63 62 61 61 59 57 57 56 55 55 54 53 54 55 54 55 56 58 61 65 65 65 65 64 65 66 66 66 66 65 62 62 61 60 58
62 63 64 63 64 63 62 62 63 61 60 59 59 58 57 57 55 55 55 54 55 56 57 56 56 57 58 63 64 66 65 64 64 65 66 66 65 63 62 61 60 58 58
62 62 63 63 62 63 61 59 60 59 60 58 57 55 53 52 55 56 56 55 55 56 57 58 58 58 59 60 61 64 65 64 64 64 66 66 64 63 62 61 59 58 56
63 62 62 63 63 63 62 60 59 57 56 58 58 56 53 50 52 55 55 55 56 57 57 58 59 59 59 60 61 61 62 63 63 63 65 65 64 62 62 60 59 58 56
61 63 63 62 63 63 62 61 61 60 59 56 57 58 57 57 52 50 55 56 56 56 57 58 58 58 59 60 59 58 59 60 62 63 64 64 64 63 62 60 59 58 58
61 62 63 62 62 63 62 62 61 60 60 59 57 56 56 56 58 56 54 56 55 55 57 58 58 59 59 60 60 59 58 60 62 63 63 64 63 63 62 60 58 57 56
60 60 61 62 62 62 62 61 61 61 60 59 59 57 55 54 55 56 55 55 55 56 56 56 57 59 59 59 58 56 57 59 61 62 62 63 63 63 62 60 58 57 55
59 59 60 60 61 62 61 61 61 61 60 59 58 58 57 57 57 56 56 55 55 56 56 55 56 58 58 58 57 54 55 57 60 61 61 61 62 62 61 59 58 56 54
53 54 55 59 60 60 60 60 60 60 60 60 59 59 58 58 58 57 56 56 54 54 55 55 55 55 56 56 55 53 55 56 58 60 60 61 61 59 58 57 56 55 54
50 51 52 52 54 55 57 60 60 60 60 60 60 59 59 59 59 59 58 58 56 52 53 53 53 53 54 55 55 55 55 56 58 59 59 58 56 56 56 55 54 53 52
45 46 47 49 50 51 51 54 57 59 59 59 60 59 59 59 59 60 59 59 58 56 53 55 53 52 53 54 54 55 54 54 56 58 56 54 54 54 54 53 52 51 50
41 42 43 44 45 46 48 49 50 52 53 57 58 58 58 58 58 59 59 58 57 57 55 55 50 50 51 52 52 53 53 54 55 55 54 52 52 52 52 52 51 49 48
35 36 36 37 39 41 44 45 45 47 48 49 51 55 57 57 58 58 58 57 57 57 56 54 48 47 49 51 51 50 49 50 52 53 52 51 51 50 50 49 48 47 45
32 33 34 35 35 37 41 43 44 44 44 45 47 48 50 52 56 57 57 57 56 56 56 52 45 46 46 49 47 47 47 47 47 50 52 51 50 49 49 48 47 45 43
30 30 31 32 35 36 36 39 39 41 42 43 44 45 47 49 50 51 53 56 56 55 53 51 47 45 45 46 47 45 43 44 44 46 48 48 49 48 48 48 46 44 42
30 29 29 30 32 34 34 36 36 37 39 40 42 43 44 45 45 47 49 50 53 54 52 50 46 44 43 44 45 45 45 43 42 41 44 46 47 47 47 48 46 43 40
29 28 28 29 30 29 34 35 35 35 35 37 39 41 42 43 44 46 47 47 49 49 51 51 48 46 46 46 46 45 43 40 39 42 41 42 44 44 44 44 45 42 41
28 27 27 28 29 30 33 34 34 34 35 35 36 38 39 40 43 43 44 46 47 48 49 51 50 48 48 47 46 43 43 43 43 40 42 40 39 40 40 40 44 42 41
26 26 27 28 29 28 32 33 33 33 34 35 37 36 37 37 40 41 42 43 44 45 47 49 50 51 50 48 47 46 45 43 37 39 41 37 36 37 36 37 43 42 40
25 26 26 27 28 29 33 33 32 33 32 32 32 32 34 35 37 38 39 42 42 43 45 46 47 49 49 48 48 45 41 39 34 34 37 35 32 31 31 32 35 42 40
24 26 25 27 29 29 31 32 31 29 28 29 29 30 33 35 38 38 39 39 40 41 43 43 45 46 47 47 46 45 42 41 34 33 35 34 31 31 31 27 30 35 37

GFSMA_sfc_dewp_108.txt.gz
Dewpoint
66 65 66 67 67 68 68 68 64 61 58 56 55 55 55 54 54 54 54 62 64 65 66 66 66 66 66 65 65 65 65 65 64 63 62 61 61 60 60 60 60 60 60
66 67 66 66 66 68 66 66 66 65 60 53 51 52 53 53 53 53 53 54 60 63 65 67 67 67 67 67 67 67 67 66 66 66 65 64 63 62 62 62 62 62 62
65 65 66 65 66 66 67 66 66 66 63 58 53 50 50 49 49 50 52 52 55 60 63 64 65 67 67 67 67 67 67 67 67 67 67 66 65 64 63 63 64 64 62
64 64 62 64 64 64 65 65 65 65 65 64 60 57 56 52 51 51 51 52 54 53 58 62 65 66 67 66 67 66 67 67 68 68 68 67 67 66 65 64 64 63 61
61 61 61 61 62 64 64 65 65 65 63 64 62 61 59 56 52 51 51 53 54 54 54 58 62 63 65 67 67 67 67 67 67 67 67 68 68 66 65 64 63 62 61
61 61 61 61 62 63 64 65 64 64 64 64 62 61 60 59 57 53 51 50 53 54 54 55 55 56 61 63 65 66 66 67 67 67 67 66 67 66 65 64 62 61 60
62 61 61 62 62 62 62 63 63 63 62 63 61 60 59 59 58 57 55 52 53 54 54 54 55 55 56 61 63 66 66 66 66 66 66 66 66 65 65 63 62 61 59
61 61 61 61 62 63 62 61 61 61 60 62 59 57 54 53 56 56 55 55 54 55 55 55 56 57 58 58 60 63 65 65 65 64 65 66 66 65 64 63 62 60 59
61 62 61 61 62 62 62 62 61 61 58 58 60 56 54 51 49 52 55 55 54 55 55 55 56 57 58 59 60 61 62 64 65 64 64 65 66 65 63 62 61 60 59
61 62 62 61 61 62 62 63 63 61 60 57 59 59 56 56 53 48 49 52 52 52 53 56 56 57 58 60 60 59 60 62 64 64 63 64 65 65 64 63 62 60 59
60 60 61 61 62 62 62 62 62 62 61 58 57 57 57 56 55 54 52 55 56 55 55 55 57 59 60 61 62 61 60 62 63 63 62 63 64 64 64 64 62 60 58
60 60 60 61 61 61 61 62 62 61 61 60 59 58 56 54 53 52 52 52 53 55 56 56 57 59 61 61 60 59 59 61 62 62 62 62 63 64 64 63 62 60 59
53 53 54 57 60 61 61 61 61 61 60 61 60 59 59 57 56 54 53 52 52 54 55 56 56 58 60 61 60 57 57 59 61 61 62 61 64 64 64 63 62 60 59
50 50 51 52 53 55 55 56 59 60 61 61 60 60 59 59 58 56 55 54 53 54 56 55 56 57 58 59 59 56 58 57 58 60 62 61 61 62 62 62 62 59 58
45 46 47 48 49 50 50 52 54 55 59 60 60 60 59 59 58 58 58 57 55 53 54 54 56 56 57 58 57 56 56 55 57 57 59 59 59 59 60 60 59 58 57
41 42 43 43 44 45 47 49 50 50 51 53 56 58 59 59 59 59 59 58 58 55 53 54 56 56 55 55 55 56 56 54 55 56 57 57 57 57 57 57 57 56 55
37 36 37 38 39 41 44 45 46 47 47 48 50 51 51 56 59 59 59 58 58 58 55 55 57 56 54 54 54 55 56 56 56 56 57 56 55 55 55 55 55 54 52
28 27 26 28 28 31 35 39 41 42 44 44 46 47 48 50 51 55 58 57 57 58 56 54 55 53 52 53 54 53 54 54 55 55 56 55 54 54 54 53 53 52 51
24 24 24 25 27 29 30 31 32 34 36 38 41 43 44 47 49 50 50 50 55 56 56 55 54 48 49 50 49 50 50 49 52 53 55 54 53 53 52 52 51 50 49
23 22 23 23 25 26 28 30 31 32 32 35 38 39 41 42 43 44 47 48 50 50 55 55 51 46 46 46 49 46 44 46 46 49 52 51 52 51 51 50 49 48 46
22 23 22 21 22 23 22 31 30 29 30 30 31 33 38 41 43 44 44 45 46 47 48 51 47 45 45 45 46 47 46 45 43 44 47 48 49 49 49 49 47 46 45
20 21 20 21 23 21 29 32 32 28 28 28 28 30 32 36 38 40 42 44 45 45 45 47 49 48 47 48 47 46 45 41 39 43 44 45 47 46 46 48 47 46 44
20 20 20 20 21 22 29 32 33 28 28 29 30 31 30 29 37 34 38 40 41 43 45 46 45 47 49 48 48 45 45 44 44 42 45 42 44 44 46 45 47 46 44
21 22 22 22 23 23 29 32 33 30 30 30 30 29 28 28 30 34 33 34 36 38 40 42 46 47 49 51 49 47 47 45 40 41 45 41 41 42 43 43 47 46 44
23 23 23 23 24 25 29 31 31 29 28 28 26 26 27 27 31 34 32 35 33 34 37 41 43 45 46 47 49 48 45 41 35 36 43 37 35 35 37 39 43 45 44
24 24 24 25 26 26 28 30 31 26 25 24 24 24 28 27 31 32 30 29 30 31 35 38 40 41 43 46 47 49 45 42 41 35 38 39 33 33 33 33 37 42 43

GFSMA_sfc_dewp_111.txt.gz
Dewpoint
64 64 63 65 66 68 68 68 68 66 61 58 57 54 53 53 54 54 55 63 64 65 66 67 66 66 66 65 65 65 65 64 64 63 63 62 61 60 60 60 60 60 61
66 67 67 68 68 69 68 67 65 66 64 59 56 54 52 53 52 52 53 58 64 65 65 66 67 66 66 66 66 66 66 66 66 66 65 64 63 63 62 62 62 62 62
64 64 66 67 67 68 67 68 67 67 66 64 60 52 50 50 51 51 52 53 57 61 64 64 65 66 67 67 67 67 68 68 68 67 67 66 66 65 64 63 63 64 64
62 64 65 65 65 66 66 65 65 65 65 65 64 60 53 50 49 48 50 51 53 53 60 63 65 65 66 67 67 67 67 67 68 68 67 68 68 67 65 64 64 64 63
64 64 64 63 63 64 64 64 65 65 64 65 64 61 58 55 54 51 49 51 53 54 55 60 62 63 65 67 66 67 67 67 67 68 68 68 68 68 66 65 64 63 62
62 62 64 64 62 63 62 64 64 65 64 63 63 63 63 60 58 57 53 50 51 54 55 56 58 58 61 64 65 65 66 67 67 68 68 67 68 68 66 66 65 63 62
60 62 62 61 62 61 61 61 62 62 63 63 63 62 62 62 60 58 58 55 53 51 54 55 55 56 57 62 63 64 65 66 67 67 68 67 67 66 66 66 65 63 61
61 61 61 62 62 63 61 61 62 61 62 63 60 59 56 57 58 58 58 58 55 53 55 55 54 55 56 58 59 62 64 64 65 66 67 67 66 66 66 65 64 62 61
62 62 61 62 62 63 62 62 62 61 60 61 61 58 55 52 52 55 56 56 55 55 54 54 54 54 56 57 60 60 61 63 65 65 66 66 66 66 66 65 64 63 61
61 62 62 62 62 62 62 62 62 62 61 60 61 60 59 57 51 50 51 54 54 52 52 53 54 55 56 58 58 58 60 61 64 64 65 65 64 65 65 65 64 63 61
61 61 62 62 62 62 62 62 62 62 62 61 60 59 59 58 57 54 51 52 56 55 54 52 54 56 57 58 60 60 60 62 64 65 65 65 63 64 64 65 64 63 61
55 54 55 58 61 61 61 61 61 61 61 61 61 59 57 56 55 54 52 51 50 52 56 55 55 56 58 59 60 59 59 62 64 65 65 64 63 64 64 65 64 64 62
51 51 52 54 54 55 55 56 59 60 61 60 60 59 59 57 57 55 54 52 50 50 50 54 56 57 58 60 61 58 58 60 63 64 64 64 63 63 64 65 65 65 62
47 47 48 49 49 50 51 52 55 55 54 59 60 60 60 59 59 58 57 55 53 52 52 50 52 55 57 60 59 56 59 58 60 62 63 63 62 61 61 63 64 64 63
41 43 44 44 44 46 48 49 50 50 51 53 53 53 56 59 60 60 59 58 55 52 52 53 54 57 58 60 59 59 59 56 58 59 60 60 59 59 60 61 62 62 62
38 38 38 39 40 41 44 46 47 47 48 49 49 49 50 51 53 55 58 58 58 56 53 56 56 57 58 57 57 58 58 55 56 57 58 57 57 58 58 59 60 60 59
32 32 32 33 33 35 37 39 39 41 42 44 45 46 47 48 49 51 52 54 57 57 54 55 55 57 55 55 55 56 56 56 57 56 57 57 56 56 57 58 58 58 57
23 23 23 24 25 27 31 33 34 34 36 37 38 41 43 45 47 48 48 48 49 50 53 54 55 53 54 54 55 55 55 55 56 55 56 56 55 55 56 57 56 56 55
21 20 20 20 21 23 24 26 28 29 31 32 34 37 39 41 42 42 44 46 48 49 49 49 53 53 53 51 51 52 53 53 53 53 55 55 56 56 56 55 55 54 53
18 19 19 19 19 19 20 25 26 27 27 29 31 32 33 37 37 40 41 43 44 44 47 47 48 48 47 47 49 47 46 46 49 50 53 55 55 54 54 54 53 51 50
18 18 18 18 19 20 17 28 28 26 26 26 28 26 30 35 38 40 38 40 41 41 42 43 45 46 45 45 45 47 47 46 45 46 49 50 51 51 52 52 50 49 49
18 18 19 19 20 17 28 29 30 29 26 26 27 29 30 33 33 35 38 39 39 38 39 39 41 43 45 47 47 46 45 41 40 44 46 47 50 49 50 50 49 48 48
20 20 21 21 21 21 27 29 32 29 28 29 30 30 29 25 33 29 33 35 36 37 38 37 39 41 44 46 48 45 45 43 44 43 47 45 45 46 48 48 49 48 47
20 21 23 22 23 23 27 29 31 30 29 30 30 29 28 27 29 31 31 31 31 31 33 34 35 37 41 43 43 44 47 46 42 41 47 44 43 45 46 47 49 47 46
23 24 23 24 25 25 28 29 30 30 29 27 25 25 25 25 28 31 29 30 28 29 31 34 36 37 38 41 42 43 42 43 41 37 43 41 37 39 40 41 47 47 46
24 25 24 26 25 25 26 28 29 27 25 23 23 23 28 26 28 30 28 25 25 25 28 29 30 32 35 37 41 41 43 42 42 36 38 40 34 34 34 35 39 46 45